Wetterdaten: Freitag, 27.12.2013
Datum Zeit Temp. Aussen +5cm Feuchte Auss Luftdruck Regen Sonnenschein Regendauer UV Solar Windben
27.12.2013 00:00 4,0 C 2,2 C 95 % 1003,3 hPa 0,0 l/m 0 min 0 min 0,0 UV-I 0 W/m 0,0 km/h (0 Bft)
27.12.2013 00:02 4,0 C 2,2 C 95 % 1003,2 hPa 0,0 l/m 0 min 0 min 0,0 UV-I 0 W/m 0,0 km/h (0 Bft)
27.12.2013 00:04 3,9 C 2,2 C 95 % 1003,3 hPa 0,0 l/m 0 min 0 min 0,0 UV-I 0 W/m 0,0 km/h (0 Bft)
27.12.2013 00:06 3,9 C 2,2 C 95 % 1003,2 hPa 0,0 l/m 0 min 0 min 0,0 UV-I 0 W/m 5,1 km/h (1 Bft)
27.12.2013 00:08 3,9 C 2,2 C 95 % 1003,2 hPa 0,0 l/m 0 min 0 min 0,0 UV-I 0 W/m 2,6 km/h (1 Bft)
27.12.2013 00:10 3,9 C 2,2 C 95 % 1003,1 hPa 0,0 l/m 0 min 0 min 0,0 UV-I 0 W/m 0,0 km/h (0 Bft)
27.12.2013 00:12 3,9 C 2,2 C 95 % 1003,1 hPa 0,0 l/m 0 min 0 min 0,0 UV-I 0 W/m 5,1 km/h (1 Bft)
27.12.2013 00:14 3,9 C 2,2 C 95 % 1003,0 hPa 0,0 l/m 0 min 0 min 0,0 UV-I 0 W/m 2,6 km/h (1 Bft)
27.12.2013 00:16 3,9 C 2,2 C 95 % 1003,0 hPa 0,0 l/m 0 min 0 min 0,0 UV-I 0 W/m 0,0 km/h (0 Bft)
27.12.2013 00:18 3,8 C 1,7 C 95 % 1003,1 hPa 0,0 l/m 0 min 0 min 0,0 UV-I 0 W/m 0,0 km/h (0 Bft)
27.12.2013 00:20 3,8 C 1,7 C 95 % 1003,0 hPa 0,0 l/m 0 min 0 min 0,0 UV-I 0 W/m 0,0 km/h (0 Bft)
27.12.2013 00:22 3,8 C 1,7 C 95 % 1003,1 hPa 0,0 l/m 0 min 0 min 0,0 UV-I 0 W/m 0,0 km/h (0 Bft)
27.12.2013 00:24 3,8 C 1,7 C 95 % 1003,0 hPa 0,0 l/m 0 min 0 min 0,0 UV-I 0 W/m 0,0 km/h (0 Bft)
27.12.2013 00:26 3,8 C 1,7 C 95 % 1003,0 hPa 0,0 l/m 0 min 0 min 0,0 UV-I 0 W/m 0,0 km/h (0 Bft)
27.12.2013 00:28 3,7 C 1,7 C 95 % 1003,0 hPa 0,0 l/m 0 min 0 min 0,0 UV-I 0 W/m 0,0 km/h (0 Bft)
27.12.2013 00:30 3,7 C 1,7 C 95 % 1003,1 hPa 0,0 l/m 0 min 0 min 0,0 UV-I 0 W/m 0,0 km/h (0 Bft)
27.12.2013 00:32 3,7 C 1,7 C 95 % 1003,1 hPa 0,0 l/m 0 min 0 min 0,0 UV-I 0 W/m 0,0 km/h (0 Bft)
27.12.2013 00:34 3,7 C 1,7 C 95 % 1003,2 hPa 0,0 l/m 0 min 0 min 0,0 UV-I 0 W/m 0,0 km/h (0 Bft)
27.12.2013 00:36 3,6 C 1,7 C 95 % 1003,2 hPa 0,0 l/m 0 min 0 min 0,0 UV-I 0 W/m 0,0 km/h (0 Bft)
27.12.2013 00:38 3,6 C 1,7 C 95 % 1003,2 hPa 0,0 l/m 0 min 0 min 0,0 UV-I 0 W/m 7,7 km/h (2 Bft)
27.12.2013 00:40 3,6 C 1,7 C 95 % 1003,3 hPa 0,0 l/m 0 min 0 min 0,0 UV-I 0 W/m 2,6 km/h (1 Bft)
27.12.2013 00:42 3,5 C 1,7 C 95 % 1003,3 hPa 0,0 l/m 0 min 0 min 0,0 UV-I 0 W/m 0,0 km/h (0 Bft)
27.12.2013 00:44 3,5 C 1,7 C 95 % 1003,3 hPa 0,0 l/m 0 min 0 min 0,0 UV-I 0 W/m 2,6 km/h (1 Bft)
27.12.2013 00:46 3,4 C 1,7 C 95 % 1003,3 hPa 0,0 l/m 0 min 0 min 0,0 UV-I 0 W/m 0,0 km/h (0 Bft)
27.12.2013 00:48 3,4 C 1,7 C 95 % 1003,4 hPa 0,0 l/m 0 min 0 min 0,0 UV-I 0 W/m 0,0 km/h (0 Bft)
27.12.2013 00:50 3,4 C 1,7 C 95 % 1003,4 hPa 0,0 l/m 0 min 0 min 0,0 UV-I 0 W/m 0,0 km/h (0 Bft)
27.12.2013 00:52 3,3 C 1,7 C 95 % 1003,4 hPa 0,0 l/m 0 min 0 min 0,0 UV-I 0 W/m 0,0 km/h (0 Bft)
27.12.2013 00:54 3,3 C 1,7 C 95 % 1003,5 hPa 0,0 l/m 0 min 0 min 0,0 UV-I 0 W/m 2,6 km/h (1 Bft)
27.12.2013 00:56 3,3 C 1,7 C 95 % 1003,4 hPa 0,0 l/m 0 min 0 min 0,0 UV-I 0 W/m 0,0 km/h (0 Bft)
27.12.2013 00:58 3,3 C 1,7 C 95 % 1003,4 hPa 0,0 l/m 0 min 0 min 0,0 UV-I 0 W/m 0,0 km/h (0 Bft)
27.12.2013 01:00 3,3 C 1,7 C 95 % 1003,4 hPa 0,0 l/m 0 min 0 min 0,0 UV-I 0 W/m 2,6 km/h (1 Bft)
27.12.2013 01:02 3,2 C 1,7 C 95 % 1003,3 hPa 0,0 l/m 0 min 0 min 0,0 UV-I 0 W/m 2,6 km/h (1 Bft)
27.12.2013 01:04 3,2 C 1,7 C 95 % 1003,3 hPa 0,0 l/m 0 min 0 min 0,0 UV-I 0 W/m 0,0 km/h (0 Bft)
27.12.2013 01:06 3,2 C 1,7 C 95 % 1003,3 hPa 0,0 l/m 0 min 0 min 0,0 UV-I 0 W/m 7,7 km/h (2 Bft)
27.12.2013 01:08 3,2 C 1,7 C 95 % 1003,3 hPa 0,0 l/m 0 min 0 min 0,0 UV-I 0 W/m 7,7 km/h (2 Bft)
27.12.2013 01:10 3,2 C 1,7 C 95 % 1003,2 hPa 0,0 l/m 0 min 0 min 0,0 UV-I 0 W/m 10,3 km/h (2 Bft)
27.12.2013 01:12 3,2 C 1,7 C 95 % 1003,1 hPa 0,0 l/m 0 min 0 min 0,0 UV-I 0 W/m 2,6 km/h (1 Bft)
27.12.2013 01:14 3,2 C 1,7 C 95 % 1003,1 hPa 0,0 l/m 0 min 0 min 0,0 UV-I 0 W/m 7,7 km/h (2 Bft)
27.12.2013 01:16 3,2 C 1,7 C 95 % 1003,1 hPa 0,0 l/m 0 min 0 min 0,0 UV-I 0 W/m 10,3 km/h (2 Bft)
27.12.2013 01:18 3,2 C 1,7 C 95 % 1002,9 hPa 0,0 l/m 0 min 0 min 0,0 UV-I 0 W/m 7,7 km/h (2 Bft)
27.12.2013 01:20 3,1 C 1,7 C 95 % 1002,8 hPa 0,0 l/m 0 min 0 min 0,0 UV-I 0 W/m 7,7 km/h (2 Bft)
27.12.2013 01:22 3,1 C 1,7 C 95 % 1002,8 hPa 0,0 l/m 0 min 0 min 0,0 UV-I 0 W/m 5,1 km/h (1 Bft)
27.12.2013 01:24 3,1 C 1,7 C 95 % 1002,9 hPa 0,0 l/m 0 min 0 min 0,0 UV-I 0 W/m 5,1 km/h (1 Bft)
27.12.2013 01:26 3,1 C 1,7 C 95 % 1002,9 hPa 0,0 l/m 0 min 0 min 0,0 UV-I 0 W/m 0,0 km/h (0 Bft)
27.12.2013 01:28 3,1 C 1,7 C 95 % 1002,8 hPa 0,0 l/m 0 min 0 min 0,0 UV-I 0 W/m 0,0 km/h (0 Bft)
27.12.2013 01:30 3,1 C 1,7 C 95 % 1002,8 hPa 0,0 l/m 0 min 0 min 0,0 UV-I 0 W/m 0,0 km/h (0 Bft)
27.12.2013 01:32 3,1 C 1,7 C 95 % 1002,8 hPa 0,0 l/m 0 min 0 min 0,0 UV-I 0 W/m 0,0 km/h (0 Bft)
27.12.2013 01:34 3,1 C 1,7 C 95 % 1002,8 hPa 0,0 l/m 0 min 0 min 0,0 UV-I 0 W/m 0,0 km/h (0 Bft)
27.12.2013 01:36 3,1 C 1,7 C 95 % 1002,9 hPa 0,0 l/m 0 min 0 min 0,0 UV-I 0 W/m 15,4 km/h (3 Bft)
27.12.2013 01:38 3,1 C 1,7 C 95 % 1002,9 hPa 0,0 l/m 0 min 0 min 0,0 UV-I 0 W/m 5,1 km/h (1 Bft)
27.12.2013 01:40 3,1 C 1,7 C 95 % 1002,8 hPa 0,0 l/m 0 min 0 min 0,0 UV-I 0 W/m 15,4 km/h (3 Bft)
27.12.2013 01:42 3,1 C 1,7 C 95 % 1002,7 hPa 0,0 l/m 0 min 0 min 0,0 UV-I 0 W/m 7,7 km/h (2 Bft)
27.12.2013 01:44 3,1 C 1,7 C 95 % 1002,6 hPa 0,0 l/m 0 min 0 min 0,0 UV-I 0 W/m 7,7 km/h (2 Bft)
27.12.2013 01:46 3,1 C 1,7 C 95 % 1002,6 hPa 0,0 l/m 0 min 0 min 0,0 UV-I 0 W/m 10,3 km/h (2 Bft)
27.12.2013 01:48 3,1 C 1,7 C 95 % 1002,5 hPa 0,0 l/m 0 min 0 min 0,0 UV-I 0 W/m 2,6 km/h (1 Bft)
27.12.2013 01:50 3,1 C 1,7 C 95 % 1002,6 hPa 0,0 l/m 0 min 0 min 0,0 UV-I 0 W/m 7,7 km/h (2 Bft)
27.12.2013 01:52 3,1 C 1,7 C 95 % 1002,5 hPa 0,0 l/m 0 min 0 min 0,0 UV-I 0 W/m 10,3 km/h (2 Bft)
27.12.2013 01:54 3,1 C 1,7 C 95 % 1002,5 hPa 0,0 l/m 0 min 0 min 0,0 UV-I 0 W/m 12,9 km/h (3 Bft)
27.12.2013 01:56 3,1 C 1,7 C 95 % 1002,6 hPa 0,0 l/m 0 min 0 min 0,0 UV-I 0 W/m 5,1 km/h (1 Bft)
27.12.2013 01:58 3,1 C 1,7 C 95 % 1002,4 hPa 0,0 l/m 0 min 0 min 0,0 UV-I 0 W/m 7,7 km/h (2 Bft)
27.12.2013 02:00 3,1 C 1,7 C 95 % 1002,5 hPa 0,0 l/m 0 min 0 min 0,0 UV-I 0 W/m 5,1 km/h (1 Bft)
27.12.2013 02:02 3,1 C 1,7 C 95 % 1002,5 hPa 0,0 l/m 0 min 0 min 0,0 UV-I 0 W/m 10,3 km/h (2 Bft)
27.12.2013 02:04 3,1 C 1,7 C 95 % 1002,5 hPa 0,0 l/m 0 min 0 min 0,0 UV-I 0 W/m 5,1 km/h (1 Bft)
27.12.2013 02:06 3,1 C 1,7 C 95 % 1002,5 hPa 0,0 l/m 0 min 0 min 0,0 UV-I 0 W/m 5,1 km/h (1 Bft)
27.12.2013 02:08 3,1 C 1,7 C 95 % 1002,5 hPa 0,0 l/m 0 min 0 min 0,0 UV-I 0 W/m 5,1 km/h (1 Bft)
27.12.2013 02:10 3,1 C 1,7 C 95 % 1002,6 hPa 0,0 l/m 0 min 0 min 0,0 UV-I 0 W/m 5,1 km/h (1 Bft)
27.12.2013 02:12 3,1 C 1,7 C 95 % 1002,5 hPa 0,0 l/m 0 min 0 min 0,0 UV-I 0 W/m 10,3 km/h (2 Bft)
27.12.2013 02:14 3,1 C 1,7 C 95 % 1002,6 hPa 0,0 l/m 0 min 0 min 0,0 UV-I 0 W/m 15,4 km/h (3 Bft)
27.12.2013 02:16 3,1 C 1,7 C 95 % 1002,6 hPa 0,0 l/m 0 min 0 min 0,0 UV-I 0 W/m 2,6 km/h (1 Bft)
27.12.2013 02:18 3,1 C 1,7 C 95 % 1002,6 hPa 0,0 l/m 0 min 0 min 0,0 UV-I 0 W/m 7,7 km/h (2 Bft)
27.12.2013 02:20 3,1 C 2,2 C 95 % 1002,6 hPa 0,0 l/m 0 min 0 min 0,0 UV-I 0 W/m 15,4 km/h (3 Bft)
27.12.2013 02:22 3,1 C 2,2 C 95 % 1002,6 hPa 0,0 l/m 0 min 0 min 0,0 UV-I 0 W/m 10,3 km/h (2 Bft)
27.12.2013 02:24 3,2 C 2,2 C 95 % 1002,7 hPa 0,0 l/m 0 min 0 min 0,0 UV-I 0 W/m 7,7 km/h (2 Bft)
27.12.2013 02:26 3,2 C 2,2 C 95 % 1002,6 hPa 0,0 l/m 0 min 0 min 0,0 UV-I 0 W/m 15,4 km/h (3 Bft)
27.12.2013 02:28 3,2 C 2,2 C 95 % 1002,7 hPa 0,0 l/m 0 min 0 min 0,0 UV-I 0 W/m 10,3 km/h (2 Bft)
27.12.2013 02:30 3,2 C 2,2 C 95 % 1002,7 hPa 0,0 l/m 0 min 0 min 0,0 UV-I 0 W/m 10,3 km/h (2 Bft)
27.12.2013 02:32 3,3 C 2,2 C 95 % 1002,8 hPa 0,0 l/m 0 min 0 min 0,0 UV-I 0 W/m 12,9 km/h (3 Bft)
27.12.2013 02:34 3,3 C 2,2 C 95 % 1002,8 hPa 0,0 l/m 0 min 0 min 0,0 UV-I 0 W/m 2,6 km/h (1 Bft)
27.12.2013 02:36 3,3 C 2,2 C 95 % 1003,0 hPa 0,0 l/m 0 min 0 min 0,0 UV-I 0 W/m 10,3 km/h (2 Bft)
27.12.2013 02:38 3,3 C 2,2 C 95 % 1003,0 hPa 0,0 l/m 0 min 0 min 0,0 UV-I 0 W/m 5,1 km/h (1 Bft)
27.12.2013 02:40 3,3 C 2,2 C 95 % 1002,9 hPa 0,0 l/m 0 min 0 min 0,0 UV-I 0 W/m 10,3 km/h (2 Bft)
27.12.2013 02:42 3,4 C 2,2 C 95 % 1002,7 hPa 0,0 l/m 0 min 0 min 0,0 UV-I 0 W/m 10,3 km/h (2 Bft)
27.12.2013 02:44 3,4 C 2,2 C 95 % 1002,6 hPa 0,0 l/m 0 min 0 min 0,0 UV-I 0 W/m 7,7 km/h (2 Bft)
27.12.2013 02:46 3,4 C 2,2 C 95 % 1002,5 hPa 0,0 l/m 0 min 0 min 0,0 UV-I 0 W/m 7,7 km/h (2 Bft)
27.12.2013 02:48 3,4 C 2,2 C 95 % 1002,6 hPa 0,0 l/m 0 min 0 min 0,0 UV-I 0 W/m 7,7 km/h (2 Bft)
27.12.2013 02:50 3,4 C 2,2 C 95 % 1002,5 hPa 0,0 l/m 0 min 0 min 0,0 UV-I 0 W/m 12,9 km/h (3 Bft)
27.12.2013 02:52 3,4 C 1,7 C 95 % 1002,5 hPa 0,0 l/m 0 min 0 min 0,0 UV-I 0 W/m 7,7 km/h (2 Bft)
27.12.2013 02:54 3,4 C 1,7 C 95 % 1002,5 hPa 0,0 l/m 0 min 0 min 0,0 UV-I 0 W/m 7,7 km/h (2 Bft)
27.12.2013 02:56 3,4 C 1,7 C 95 % 1002,5 hPa 0,0 l/m 0 min 0 min 0,0 UV-I 0 W/m 2,6 km/h (1 Bft)
27.12.2013 02:58 3,4 C 1,7 C 95 % 1002,6 hPa 0,0 l/m 0 min 0 min 0,0 UV-I 0 W/m 10,3 km/h (2 Bft)
27.12.2013 03:00 3,4 C 1,7 C 95 % 1002,5 hPa 0,0 l/m 0 min 0 min 0,0 UV-I 0 W/m 12,9 km/h (3 Bft)
27.12.2013 03:02 3,4 C 1,7 C 95 % 1002,6 hPa 0,0 l/m 0 min 0 min 0,0 UV-I 0 W/m 10,3 km/h (2 Bft)
27.12.2013 03:04 3,4 C 1,7 C 95 % 1002,5 hPa 0,0 l/m 0 min 0 min 0,0 UV-I 0 W/m 5,1 km/h (1 Bft)
27.12.2013 03:06 3,4 C 1,7 C 95 % 1002,5 hPa 0,0 l/m 0 min 0 min 0,0 UV-I 0 W/m 10,3 km/h (2 Bft)
27.12.2013 03:08 3,3 C 1,7 C 95 % 1002,6 hPa 0,0 l/m 0 min 0 min 0,0 UV-I 0 W/m 10,3 km/h (2 Bft)
27.12.2013 03:10 3,3 C 1,7 C 95 % 1002,5 hPa 0,0 l/m 0 min 0 min 0,0 UV-I 0 W/m 7,7 km/h (2 Bft)
27.12.2013 03:12 3,3 C 1,7 C 95 % 1002,5 hPa 0,0 l/m 0 min 0 min 0,0 UV-I 0 W/m 10,3 km/h (2 Bft)
27.12.2013 03:14 3,3 C 1,7 C 95 % 1002,4 hPa 0,0 l/m 0 min 0 min 0,0 UV-I 0 W/m 5,1 km/h (1 Bft)
27.12.2013 03:16 3,3 C 1,7 C 95 % 1002,4 hPa 0,0 l/m 0 min 0 min 0,0 UV-I 0 W/m 7,7 km/h (2 Bft)
27.12.2013 03:18 3,2 C 1,7 C 95 % 1002,4 hPa 0,0 l/m 0 min 0 min 0,0 UV-I 0 W/m 7,7 km/h (2 Bft)
27.12.2013 03:20 3,2 C 1,7 C 94 % 1002,4 hPa 0,0 l/m 0 min 0 min 0,0 UV-I 0 W/m 7,7 km/h (2 Bft)
27.12.2013 03:22 3,2 C 1,7 C 94 % 1002,5 hPa 0,0 l/m 0 min 0 min 0,0 UV-I 0 W/m 10,3 km/h (2 Bft)
27.12.2013 03:24 3,2 C 1,7 C 94 % 1002,5 hPa 0,0 l/m 0 min 0 min 0,0 UV-I 0 W/m 5,1 km/h (1 Bft)
27.12.2013 03:26 3,1 C 1,7 C 94 % 1002,5 hPa 0,0 l/m 0 min 0 min 0,0 UV-I 0 W/m 5,1 km/h (1 Bft)
27.12.2013 03:28 3,1 C 1,7 C 94 % 1002,5 hPa 0,0 l/m 0 min 0 min 0,0 UV-I 0 W/m 7,7 km/h (2 Bft)
27.12.2013 03:30 3,1 C 1,7 C 94 % 1002,5 hPa 0,0 l/m 0 min 0 min 0,0 UV-I 0 W/m 12,9 km/h (3 Bft)
27.12.2013 03:32 3,1 C 1,7 C 94 % 1002,5 hPa 0,0 l/m 0 min 0 min 0,0 UV-I 0 W/m 10,3 km/h (2 Bft)
27.12.2013 03:34 3,1 C 1,7 C 94 % 1002,4 hPa 0,0 l/m 0 min 0 min 0,0 UV-I 0 W/m 12,9 km/h (3 Bft)
27.12.2013 03:36 3,1 C 1,7 C 94 % 1002,4 hPa 0,0 l/m 0 min 0 min 0,0 UV-I 0 W/m 12,9 km/h (3 Bft)
27.12.2013 03:38 3,0 C 1,7 C 94 % 1002,4 hPa 0,0 l/m 0 min 0 min 0,0 UV-I 0 W/m 7,7 km/h (2 Bft)
27.12.2013 03:40 3,0 C 1,7 C 94 % 1002,4 hPa 0,0 l/m 0 min 0 min 0,0 UV-I 0 W/m 10,3 km/h (2 Bft)
27.12.2013 03:42 3,0 C 1,7 C 94 % 1002,4 hPa 0,0 l/m 0 min 0 min 0,0 UV-I 0 W/m 7,7 km/h (2 Bft)
27.12.2013 03:44 3,0 C 1,7 C 94 % 1002,4 hPa 0,0 l/m 0 min 0 min 0,0 UV-I 0 W/m 12,9 km/h (3 Bft)
27.12.2013 03:46 3,0 C 1,7 C 94 % 1002,4 hPa 0,0 l/m 0 min 0 min 0,0 UV-I 0 W/m 12,9 km/h (3 Bft)
27.12.2013 03:48 3,0 C 1,7 C 94 % 1002,4 hPa 0,0 l/m 0 min 0 min 0,0 UV-I 0 W/m 7,7 km/h (2 Bft)
27.12.2013 03:50 2,9 C 1,7 C 94 % 1002,4 hPa 0,0 l/m 0 min 0 min 0,0 UV-I 0 W/m 10,3 km/h (2 Bft)
27.12.2013 03:52 2,9 C 1,7 C 94 % 1002,4 hPa 0,0 l/m 0 min 0 min 0,0 UV-I 0 W/m 7,7 km/h (2 Bft)
27.12.2013 03:54 2,9 C 1,7 C 94 % 1002,4 hPa 0,0 l/m 0 min 0 min 0,0 UV-I 0 W/m 7,7 km/h (2 Bft)
27.12.2013 03:56 2,9 C 1,7 C 94 % 1002,3 hPa 0,0 l/m 0 min 0 min 0,0 UV-I 0 W/m 10,3 km/h (2 Bft)
27.12.2013 03:58 2,9 C 1,7 C 94 % 1002,3 hPa 0,0 l/m 0 min 0 min 0,0 UV-I 0 W/m 7,7 km/h (2 Bft)
27.12.2013 04:00 2,9 C 1,7 C 94 % 1002,2 hPa 0,0 l/m 0 min 0 min 0,0 UV-I 0 W/m 15,4 km/h (3 Bft)
27.12.2013 04:02 3,0 C 1,7 C 94 % 1002,2 hPa 0,0 l/m 0 min 0 min 0,0 UV-I 0 W/m 15,4 km/h (3 Bft)
27.12.2013 04:04 3,0 C 1,7 C 94 % 1002,1 hPa 0,0 l/m 0 min 0 min 0,0 UV-I 0 W/m 12,9 km/h (3 Bft)
27.12.2013 04:06 3,0 C 1,7 C 94 % 1002,0 hPa 0,0 l/m 0 min 0 min 0,0 UV-I 0 W/m 18,0 km/h (3 Bft)
27.12.2013 04:08 3,0 C 1,7 C 94 % 1002,1 hPa 0,0 l/m 0 min 0 min 0,0 UV-I 0 W/m 18,0 km/h (3 Bft)
27.12.2013 04:10 3,0 C 1,7 C 94 % 1002,1 hPa 0,0 l/m 0 min 0 min 0,0 UV-I 0 W/m 12,9 km/h (3 Bft)
27.12.2013 04:12 3,0 C 1,7 C 93 % 1002,1 hPa 0,0 l/m 0 min 0 min 0,0 UV-I 0 W/m 15,4 km/h (3 Bft)
27.12.2013 04:14 3,0 C 1,7 C 93 % 1002,0 hPa 0,0 l/m 0 min 0 min 0,0 UV-I 0 W/m 12,9 km/h (3 Bft)
27.12.2013 04:16 3,1 C 1,7 C 93 % 1001,9 hPa 0,0 l/m 0 min 0 min 0,0 UV-I 0 W/m 15,4 km/h (3 Bft)
27.12.2013 04:18 3,1 C 1,7 C 93 % 1002,0 hPa 0,0 l/m 0 min 0 min 0,0 UV-I 0 W/m 12,9 km/h (3 Bft)
27.12.2013 04:20 3,1 C 1,7 C 93 % 1001,9 hPa 0,0 l/m 0 min 0 min 0,0 UV-I 0 W/m 15,4 km/h (3 Bft)
27.12.2013 04:22 3,1 C 1,7 C 93 % 1001,9 hPa 0,0 l/m 0 min 0 min 0,0 UV-I 0 W/m 15,4 km/h (3 Bft)
27.12.2013 04:24 3,1 C 1,7 C 93 % 1001,9 hPa 0,0 l/m 0 min 0 min 0,0 UV-I 0 W/m 15,4 km/h (3 Bft)
27.12.2013 04:26 3,1 C 1,7 C 93 % 1001,9 hPa 0,0 l/m 0 min 0 min 0,0 UV-I 0 W/m 12,9 km/h (3 Bft)
27.12.2013 04:28 3,1 C 2,2 C 93 % 1001,9 hPa 0,0 l/m 0 min 0 min 0,0 UV-I 0 W/m 12,9 km/h (3 Bft)
27.12.2013 04:30 3,1 C 2,2 C 93 % 1001,8 hPa 0,0 l/m 0 min 0 min 0,0 UV-I 0 W/m 18,0 km/h (3 Bft)
27.12.2013 04:32 3,1 C 2,2 C 93 % 1001,8 hPa 0,0 l/m 0 min 0 min 0,0 UV-I 0 W/m 12,9 km/h (3 Bft)
27.12.2013 04:34 3,2 C 2,2 C 93 % 1001,8 hPa 0,0 l/m 0 min 0 min 0,0 UV-I 0 W/m 12,9 km/h (3 Bft)
27.12.2013 04:36 3,2 C 2,2 C 93 % 1001,7 hPa 0,0 l/m 0 min 0 min 0,0 UV-I 0 W/m 18,0 km/h (3 Bft)
27.12.2013 04:38 3,2 C 2,2 C 93 % 1001,7 hPa 0,0 l/m 0 min 0 min 0,0 UV-I 0 W/m 20,6 km/h (4 Bft)
27.12.2013 04:40 3,2 C 2,2 C 93 % 1001,7 hPa 0,0 l/m 0 min 0 min 0,0 UV-I 0 W/m 18,0 km/h (3 Bft)
27.12.2013 04:42 3,2 C 2,2 C 93 % 1001,6 hPa 0,0 l/m 0 min 0 min 0,0 UV-I 0 W/m 12,9 km/h (3 Bft)
27.12.2013 04:44 3,2 C 2,2 C 93 % 1001,6 hPa 0,0 l/m 0 min 0 min 0,0 UV-I 0 W/m 15,4 km/h (3 Bft)
27.12.2013 04:46 3,2 C 2,2 C 92 % 1001,5 hPa 0,0 l/m 0 min 0 min 0,0 UV-I 0 W/m 18,0 km/h (3 Bft)
27.12.2013 04:48 3,3 C 2,2 C 92 % 1001,4 hPa 0,0 l/m 0 min 0 min 0,0 UV-I 0 W/m 18,0 km/h (3 Bft)
27.12.2013 04:50 3,3 C 2,2 C 92 % 1001,4 hPa 0,0 l/m 0 min 0 min 0,0 UV-I 0 W/m 15,4 km/h (3 Bft)
27.12.2013 04:52 3,3 C 2,2 C 92 % 1001,4 hPa 0,0 l/m 0 min 0 min 0,0 UV-I 0 W/m 12,9 km/h (3 Bft)
27.12.2013 04:54 3,3 C 2,2 C 92 % 1001,4 hPa 0,0 l/m 0 min 0 min 0,0 UV-I 0 W/m 18,0 km/h (3 Bft)
27.12.2013 04:56 3,3 C 2,2 C 92 % 1001,4 hPa 0,0 l/m 0 min 0 min 0,0 UV-I 0 W/m 23,2 km/h (4 Bft)
27.12.2013 04:58 3,4 C 2,2 C 92 % 1001,4 hPa 0,0 l/m 0 min 0 min 0,0 UV-I 0 W/m 15,4 km/h (3 Bft)
27.12.2013 05:00 3,4 C 2,2 C 92 % 1001,3 hPa 0,0 l/m 0 min 0 min 0,0 UV-I 0 W/m 15,4 km/h (3 Bft)
27.12.2013 05:02 3,4 C 2,2 C 92 % 1001,3 hPa 0,0 l/m 0 min 0 min 0,0 UV-I 0 W/m 15,4 km/h (3 Bft)
27.12.2013 05:04 3,4 C 2,2 C 92 % 1001,2 hPa 0,0 l/m 0 min 0 min 0,0 UV-I 0 W/m 15,4 km/h (3 Bft)
27.12.2013 05:06 3,4 C 2,2 C 92 % 1001,1 hPa 0,0 l/m 0 min 0 min 0,0 UV-I 0 W/m 18,0 km/h (3 Bft)
27.12.2013 05:08 3,5 C 2,2 C 92 % 1001,2 hPa 0,0 l/m 0 min 0 min 0,0 UV-I 0 W/m 23,2 km/h (4 Bft)
27.12.2013 05:10 3,5 C 2,2 C 92 % 1001,1 hPa 0,0 l/m 0 min 0 min 0,0 UV-I 0 W/m 20,6 km/h (4 Bft)
27.12.2013 05:12 3,6 C 2,2 C 92 % 1001,1 hPa 0,0 l/m 0 min 0 min 0,0 UV-I 0 W/m 12,9 km/h (3 Bft)
27.12.2013 05:14 3,6 C 2,8 C 92 % 1001,0 hPa 0,0 l/m 0 min 0 min 0,0 UV-I 0 W/m 23,2 km/h (4 Bft)
27.12.2013 05:16 3,6 C 2,8 C 91 % 1001,0 hPa 0,0 l/m 0 min 0 min 0,0 UV-I 0 W/m 18,0 km/h (3 Bft)
27.12.2013 05:18 3,6 C 2,8 C 91 % 1001,0 hPa 0,0 l/m 0 min 0 min 0,0 UV-I 0 W/m 20,6 km/h (4 Bft)
27.12.2013 05:20 3,7 C 2,8 C 91 % 1000,9 hPa 0,0 l/m 0 min 0 min 0,0 UV-I 0 W/m 20,6 km/h (4 Bft)
27.12.2013 05:22 3,7 C 2,8 C 91 % 1000,9 hPa 0,0 l/m 0 min 0 min 0,0 UV-I 0 W/m 12,9 km/h (3 Bft)
27.12.2013 05:24 3,7 C 2,8 C 91 % 1000,8 hPa 0,0 l/m 0 min 0 min 0,0 UV-I 0 W/m 10,3 km/h (2 Bft)
27.12.2013 05:26 3,7 C 2,8 C 91 % 1000,8 hPa 0,0 l/m 0 min 0 min 0,0 UV-I 0 W/m 23,2 km/h (4 Bft)
27.12.2013 05:28 3,8 C 2,8 C 91 % 1000,8 hPa 0,0 l/m 0 min 0 min 0,0 UV-I 0 W/m 20,6 km/h (4 Bft)
27.12.2013 05:30 3,8 C 2,8 C 91 % 1000,8 hPa 0,0 l/m 0 min 0 min 0,0 UV-I 0 W/m 15,4 km/h (3 Bft)
27.12.2013 05:32 3,8 C 2,8 C 91 % 1000,8 hPa 0,0 l/m 0 min 0 min 0,0 UV-I 0 W/m 15,4 km/h (3 Bft)
27.12.2013 05:34 3,9 C 2,8 C 90 % 1000,8 hPa 0,0 l/m 0 min 0 min 0,0 UV-I 0 W/m 18,0 km/h (3 Bft)
27.12.2013 05:36 3,9 C 2,8 C 91 % 1000,8 hPa 0,0 l/m 0 min 0 min 0,0 UV-I 0 W/m 18,0 km/h (3 Bft)
27.12.2013 05:38 3,9 C 2,8 C 90 % 1000,8 hPa 0,0 l/m 0 min 0 min 0,0 UV-I 0 W/m 23,2 km/h (4 Bft)
27.12.2013 05:40 3,9 C 2,8 C 90 % 1000,8 hPa 0,0 l/m 0 min 0 min 0,0 UV-I 0 W/m 20,6 km/h (4 Bft)
27.12.2013 05:42 4,0 C 2,8 C 90 % 1000,8 hPa 0,0 l/m 0 min 0 min 0,0 UV-I 0 W/m 20,6 km/h (4 Bft)
27.12.2013 05:44 4,1 C 2,8 C 90 % 1000,6 hPa 0,0 l/m 0 min 0 min 0,0 UV-I 0 W/m 18,0 km/h (3 Bft)
27.12.2013 05:46 4,1 C 3,3 C 90 % 1000,6 hPa 0,0 l/m 0 min 0 min 0,0 UV-I 0 W/m 23,2 km/h (4 Bft)
27.12.2013 05:48 4,1 C 3,3 C 90 % 1000,7 hPa 0,0 l/m 0 min 0 min 0,0 UV-I 0 W/m 20,6 km/h (4 Bft)
27.12.2013 05:50 4,2 C 3,3 C 90 % 1000,6 hPa 0,0 l/m 0 min 0 min 0,0 UV-I 0 W/m 15,4 km/h (3 Bft)
27.12.2013 05:52 4,2 C 3,3 C 90 % 1000,5 hPa 0,0 l/m 0 min 0 min 0,0 UV-I 0 W/m 18,0 km/h (3 Bft)
27.12.2013 05:54 4,2 C 3,3 C 90 % 1000,5 hPa 0,0 l/m 0 min 0 min 0,0 UV-I 0 W/m 18,0 km/h (3 Bft)
27.12.2013 05:56 4,2 C 3,3 C 89 % 1000,6 hPa 0,0 l/m 0 min 0 min 0,0 UV-I 0 W/m 12,9 km/h (3 Bft)
27.12.2013 05:58 4,2 C 3,3 C 89 % 1000,5 hPa 0,0 l/m 0 min 0 min 0,0 UV-I 0 W/m 20,6 km/h (4 Bft)
27.12.2013 06:00 4,3 C 3,3 C 89 % 1000,5 hPa 0,0 l/m 0 min 0 min 0,0 UV-I 0 W/m 18,0 km/h (3 Bft)
27.12.2013 06:02 4,3 C 3,3 C 89 % 1000,5 hPa 0,0 l/m 0 min 0 min 0,0 UV-I 0 W/m 20,6 km/h (4 Bft)
27.12.2013 06:04 4,3 C 3,3 C 89 % 1000,4 hPa 0,0 l/m 0 min 0 min 0,0 UV-I 0 W/m 12,9 km/h (3 Bft)
27.12.2013 06:06 4,3 C 3,3 C 89 % 1000,4 hPa 0,0 l/m 0 min 0 min 0,0 UV-I 0 W/m 20,6 km/h (4 Bft)
27.12.2013 06:08 4,4 C 3,3 C 89 % 1000,4 hPa 0,0 l/m 0 min 0 min 0,0 UV-I 0 W/m 20,6 km/h (4 Bft)
27.12.2013 06:10 4,4 C 3,3 C 89 % 1000,2 hPa 0,0 l/m 0 min 0 min 0,0 UV-I 0 W/m 20,6 km/h (4 Bft)
27.12.2013 06:12 4,4 C 3,3 C 89 % 1000,1 hPa 0,0 l/m 0 min 0 min 0,0 UV-I 0 W/m 23,2 km/h (4 Bft)
27.12.2013 06:14 4,4 C 3,3 C 88 % 1000,0 hPa 0,0 l/m 0 min 0 min 0,0 UV-I 0 W/m 15,4 km/h (3 Bft)
27.12.2013 06:16 4,4 C 3,3 C 88 % 1000,2 hPa 0,0 l/m 0 min 0 min 0,0 UV-I 0 W/m 18,0 km/h (3 Bft)
27.12.2013 06:18 4,5 C 3,3 C 88 % 1000,1 hPa 0,0 l/m 0 min 0 min 0,0 UV-I 0 W/m 23,2 km/h (4 Bft)
27.12.2013 06:20 4,6 C 3,3 C 88 % 1000,2 hPa 0,0 l/m 0 min 0 min 0,0 UV-I 0 W/m 15,4 km/h (3 Bft)
27.12.2013 06:22 4,6 C 3,3 C 88 % 1000,1 hPa 0,0 l/m 0 min 0 min 0,0 UV-I 0 W/m 10,3 km/h (2 Bft)
27.12.2013 06:24 4,6 C 3,3 C 88 % 1000,0 hPa 0,0 l/m 0 min 0 min 0,0 UV-I 0 W/m 15,4 km/h (3 Bft)
27.12.2013 06:26 4,6 C 3,3 C 88 % 999,9 hPa 0,0 l/m 0 min 0 min 0,0 UV-I 0 W/m 23,2 km/h (4 Bft)
27.12.2013 06:28 4,6 C 3,3 C 88 % 1000,0 hPa 0,0 l/m 0 min 0 min 0,0 UV-I 0 W/m 18,0 km/h (3 Bft)
27.12.2013 06:30 4,7 C 3,3 C 88 % 1000,0 hPa 0,0 l/m 0 min 0 min 0,0 UV-I 0 W/m 12,9 km/h (3 Bft)
27.12.2013 06:32 4,7 C 3,3 C 88 % 999,9 hPa 0,0 l/m 0 min 0 min 0,0 UV-I 0 W/m 15,4 km/h (3 Bft)
27.12.2013 06:34 4,7 C 3,3 C 88 % 999,8 hPa 0,0 l/m 0 min 0 min 0,0 UV-I 0 W/m 18,0 km/h (3 Bft)
27.12.2013 06:36 4,7 C 3,3 C 88 % 999,8 hPa 0,0 l/m 0 min 0 min 0,0 UV-I 0 W/m 18,0 km/h (3 Bft)
27.12.2013 06:38 4,7 C 3,3 C 88 % 999,7 hPa 0,0 l/m 0 min 0 min 0,0 UV-I 0 W/m 10,3 km/h (2 Bft)
27.12.2013 06:40 4,8 C 3,3 C 88 % 999,6 hPa 0,0 l/m 0 min 0 min 0,0 UV-I 0 W/m 23,2 km/h (4 Bft)
27.12.2013 06:42 4,8 C 3,3 C 87 % 999,6 hPa 0,0 l/m 0 min 0 min 0,0 UV-I 0 W/m 28,3 km/h (4 Bft)
27.12.2013 06:44 4,8 C 3,3 C 87 % 999,5 hPa 0,0 l/m 0 min 0 min 0,0 UV-I 0 W/m 15,4 km/h (3 Bft)
27.12.2013 06:46 4,8 C 3,3 C 87 % 999,4 hPa 0,0 l/m 0 min 0 min 0,0 UV-I 0 W/m 15,4 km/h (3 Bft)
27.12.2013 06:48 4,8 C 3,3 C 87 % 999,4 hPa 0,0 l/m 0 min 0 min 0,0 UV-I 0 W/m 25,7 km/h (4 Bft)
27.12.2013 06:50 4,8 C 3,9 C 87 % 999,4 hPa 0,0 l/m 0 min 0 min 0,0 UV-I 0 W/m 25,7 km/h (4 Bft)
27.12.2013 06:52 4,9 C 3,9 C 87 % 999,4 hPa 0,0 l/m 0 min 0 min 0,0 UV-I 0 W/m 18,0 km/h (3 Bft)
27.12.2013 06:54 4,9 C 3,9 C 87 % 999,4 hPa 0,0 l/m 0 min 0 min 0,0 UV-I 0 W/m 18,0 km/h (3 Bft)
27.12.2013 06:56 4,9 C 3,9 C 87 % 999,3 hPa 0,0 l/m 0 min 0 min 0,0 UV-I 0 W/m 25,7 km/h (4 Bft)
27.12.2013 06:58 4,9 C 3,9 C 87 % 999,3 hPa 0,0 l/m 0 min 0 min 0,0 UV-I 0 W/m 20,6 km/h (4 Bft)
27.12.2013 07:00 5,0 C 3,9 C 87 % 999,2 hPa 0,0 l/m 0 min 0 min 0,0 UV-I 0 W/m 7,7 km/h (2 Bft)
27.12.2013 07:02 5,0 C 3,9 C 87 % 999,2 hPa 0,0 l/m 0 min 0 min 0,0 UV-I 0 W/m 18,0 km/h (3 Bft)
27.12.2013 07:04 5,1 C 3,9 C 86 % 999,1 hPa 0,0 l/m 0 min 0 min 0,0 UV-I 0 W/m 15,4 km/h (3 Bft)
27.12.2013 07:06 5,1 C 3,9 C 86 % 999,0 hPa 0,0 l/m 0 min 0 min 0,0 UV-I 0 W/m 18,0 km/h (3 Bft)
27.12.2013 07:08 5,1 C 3,9 C 86 % 999,0 hPa 0,0 l/m 0 min 0 min 0,0 UV-I 0 W/m 20,6 km/h (4 Bft)
27.12.2013 07:10 5,1 C 3,9 C 86 % 999,0 hPa 0,0 l/m 0 min 0 min 0,0 UV-I 0 W/m 15,4 km/h (3 Bft)
27.12.2013 07:12 5,2 C 3,9 C 86 % 999,0 hPa 0,0 l/m 0 min 0 min 0,0 UV-I 0 W/m 12,9 km/h (3 Bft)
27.12.2013 07:14 5,2 C 3,9 C 86 % 998,9 hPa 0,0 l/m 0 min 0 min 0,0 UV-I 0 W/m 18,0 km/h (3 Bft)
27.12.2013 07:16 5,2 C 3,9 C 86 % 998,8 hPa 0,0 l/m 0 min 0 min 0,0 UV-I 0 W/m 18,0 km/h (3 Bft)
27.12.2013 07:18 5,3 C 3,9 C 86 % 998,7 hPa 0,0 l/m 0 min 0 min 0,0 UV-I 0 W/m 23,2 km/h (4 Bft)
27.12.2013 07:20 5,3 C 3,9 C 86 % 998,7 hPa 0,0 l/m 0 min 0 min 0,0 UV-I 0 W/m 18,0 km/h (3 Bft)
27.12.2013 07:22 5,3 C 3,9 C 86 % 998,7 hPa 0,0 l/m 0 min 0 min 0,0 UV-I 0 W/m 10,3 km/h (2 Bft)
27.12.2013 07:24 5,3 C 3,9 C 86 % 998,7 hPa 0,0 l/m 0 min 0 min 0,0 UV-I 0 W/m 20,6 km/h (4 Bft)
27.12.2013 07:26 5,4 C 4,4 C 86 % 998,6 hPa 0,0 l/m 0 min 0 min 0,0 UV-I 0 W/m 20,6 km/h (4 Bft)
27.12.2013 07:28 5,4 C 4,4 C 85 % 998,6 hPa 0,0 l/m 0 min 0 min 0,0 UV-I 0 W/m 23,2 km/h (4 Bft)
27.12.2013 07:30 5,4 C 4,4 C 85 % 998,6 hPa 0,0 l/m 0 min 0 min 0,0 UV-I 0 W/m 18,0 km/h (3 Bft)
27.12.2013 07:32 5,5 C 4,4 C 85 % 998,5 hPa 0,0 l/m 0 min 0 min 0,0 UV-I 0 W/m 15,4 km/h (3 Bft)
27.12.2013 07:34 5,6 C 4,4 C 85 % 998,5 hPa 0,0 l/m 0 min 0 min 0,0 UV-I 0 W/m 20,6 km/h (4 Bft)
27.12.2013 07:36 5,6 C 4,4 C 85 % 998,5 hPa 0,0 l/m 0 min 0 min 0,0 UV-I 0 W/m 20,6 km/h (4 Bft)
27.12.2013 07:38 5,7 C 4,4 C 85 % 998,4 hPa 0,0 l/m 0 min 0 min 0,0 UV-I 0 W/m 18,0 km/h (3 Bft)
27.12.2013 07:40 5,7 C 4,4 C 84 % 998,4 hPa 0,0 l/m 0 min 0 min 0,0 UV-I 0 W/m 30,9 km/h (5 Bft)
27.12.2013 07:42 5,7 C 4,4 C 84 % 998,3 hPa 0,0 l/m 0 min 0 min 0,0 UV-I 0 W/m 15,4 km/h (3 Bft)
27.12.2013 07:44 5,8 C 4,4 C 84 % 998,4 hPa 0,0 l/m 0 min 0 min 0,0 UV-I 0 W/m 30,9 km/h (5 Bft)
27.12.2013 07:46 5,8 C 4,4 C 84 % 998,1 hPa 0,0 l/m 0 min 0 min 0,0 UV-I 0 W/m 23,2 km/h (4 Bft)
27.12.2013 07:48 5,9 C 4,4 C 84 % 998,3 hPa 0,0 l/m 0 min 0 min 0,0 UV-I 0 W/m 7,7 km/h (2 Bft)
27.12.2013 07:50 5,9 C 4,4 C 83 % 998,4 hPa 0,0 l/m 0 min 0 min 0,0 UV-I 0 W/m 30,9 km/h (5 Bft)
27.12.2013 07:52 6,0 C 5,0 C 83 % 998,1 hPa 0,0 l/m 0 min 0 min 0,0 UV-I 0 W/m 25,7 km/h (4 Bft)
27.12.2013 07:54 6,1 C 5,0 C 83 % 998,1 hPa 0,0 l/m 0 min 0 min 0,0 UV-I 0 W/m 23,2 km/h (4 Bft)
27.12.2013 07:56 6,1 C 5,0 C 83 % 998,0 hPa 0,0 l/m 0 min 0 min 0,0 UV-I 0 W/m 18,0 km/h (3 Bft)
27.12.2013 07:58 6,1 C 4,4 C 82 % 997,9 hPa 0,0 l/m 0 min 0 min 0,0 UV-I 0 W/m 18,0 km/h (3 Bft)
27.12.2013 08:00 6,2 C 4,4 C 82 % 997,8 hPa 0,0 l/m 0 min 0 min 0,0 UV-I 0 W/m 28,3 km/h (4 Bft)
27.12.2013 08:02 6,2 C 4,4 C 82 % 997,8 hPa 0,0 l/m 0 min 0 min 0,0 UV-I 0 W/m 30,9 km/h (5 Bft)
27.12.2013 08:04 6,2 C 5,0 C 82 % 997,8 hPa 0,0 l/m 0 min 0 min 0,0 UV-I 0 W/m 23,2 km/h (4 Bft)
27.12.2013 08:06 6,2 C 4,4 C 82 % 997,7 hPa 0,0 l/m 0 min 0 min 0,0 UV-I 0 W/m 28,3 km/h (4 Bft)
27.12.2013 08:08 6,3 C 5,0 C 81 % 997,8 hPa 0,0 l/m 0 min 0 min 0,0 UV-I 0 W/m 18,0 km/h (3 Bft)
27.12.2013 08:10 6,3 C 5,0 C 81 % 997,9 hPa 0,0 l/m 0 min 0 min 0,0 UV-I 0 W/m 23,2 km/h (4 Bft)
27.12.2013 08:12 6,3 C 5,0 C 81 % 997,8 hPa 0,0 l/m 0 min 0 min 0,0 UV-I 0 W/m 38,6 km/h (5 Bft)
27.12.2013 08:14 6,3 C 5,0 C 81 % 997,8 hPa 0,0 l/m 0 min 0 min 0,0 UV-I 0 W/m 25,7 km/h (4 Bft)
27.12.2013 08:16 6,3 C 5,0 C 81 % 997,8 hPa 0,0 l/m 0 min 0 min 0,0 UV-I 0 W/m 23,2 km/h (4 Bft)
27.12.2013 08:18 6,4 C 5,0 C 81 % 997,7 hPa 0,0 l/m 0 min 0 min 0,0 UV-I 0 W/m 23,2 km/h (4 Bft)
27.12.2013 08:20 6,4 C 5,0 C 81 % 997,7 hPa 0,0 l/m 0 min 0 min 0,0 UV-I 0 W/m 33,5 km/h (5 Bft)
27.12.2013 08:22 6,4 C 5,0 C 81 % 997,7 hPa 0,0 l/m 0 min 0 min 0,0 UV-I 0 W/m 20,6 km/h (4 Bft)
27.12.2013 08:24 6,4 C 5,0 C 81 % 997,7 hPa 0,0 l/m 0 min 0 min 0,0 UV-I 0 W/m 18,0 km/h (3 Bft)
27.12.2013 08:26 6,4 C 5,0 C 81 % 997,8 hPa 0,0 l/m 0 min 0 min 0,0 UV-I 0 W/m 25,7 km/h (4 Bft)
27.12.2013 08:28 6,4 C 5,0 C 80 % 997,9 hPa 0,0 l/m 0 min 0 min 0,0 UV-I 0 W/m 18,0 km/h (3 Bft)
27.12.2013 08:30 6,4 C 5,0 C 80 % 997,8 hPa 0,0 l/m 0 min 0 min 0,0 UV-I 0 W/m 25,7 km/h (4 Bft)
27.12.2013 08:32 6,4 C 5,0 C 80 % 997,8 hPa 0,0 l/m 0 min 0 min 0,0 UV-I 0 W/m 20,6 km/h (4 Bft)
27.12.2013 08:34 6,4 C 5,0 C 80 % 997,8 hPa 0,0 l/m 0 min 0 min 0,0 UV-I 0 W/m 33,5 km/h (5 Bft)
27.12.2013 08:36 6,5 C 5,0 C 80 % 997,8 hPa 0,0 l/m 0 min 0 min 0,0 UV-I 5 W/m 20,6 km/h (4 Bft)
27.12.2013 08:38 6,5 C 5,0 C 80 % 997,8 hPa 0,0 l/m 0 min 0 min 0,0 UV-I 5 W/m 25,7 km/h (4 Bft)
27.12.2013 08:40 6,6 C 5,0 C 80 % 997,8 hPa 0,0 l/m 0 min 0 min 0,0 UV-I 5 W/m 23,2 km/h (4 Bft)
27.12.2013 08:42 6,6 C 5,0 C 80 % 997,7 hPa 0,0 l/m 0 min 0 min 0,0 UV-I 5 W/m 23,2 km/h (4 Bft)
27.12.2013 08:44 6,6 C 5,0 C 80 % 997,7 hPa 0,0 l/m 0 min 0 min 0,0 UV-I 5 W/m 20,6 km/h (4 Bft)
27.12.2013 08:46 6,7 C 5,6 C 79 % 997,7 hPa 0,0 l/m 0 min 0 min 0,0 UV-I 5 W/m 33,5 km/h (5 Bft)
27.12.2013 08:48 6,7 C 5,6 C 79 % 997,7 hPa 0,0 l/m 0 min 0 min 0,0 UV-I 5 W/m 18,0 km/h (3 Bft)
27.12.2013 08:50 6,8 C 5,6 C 79 % 997,6 hPa 0,0 l/m 0 min 0 min 0,0 UV-I 5 W/m 38,6 km/h (5 Bft)
27.12.2013 08:52 6,8 C 5,6 C 79 % 997,6 hPa 0,0 l/m 0 min 0 min 0,0 UV-I 5 W/m 25,7 km/h (4 Bft)
27.12.2013 08:54 6,8 C 5,6 C 79 % 997,5 hPa 0,0 l/m 0 min 0 min 0,0 UV-I 7 W/m 38,6 km/h (5 Bft)
27.12.2013 08:56 6,8 C 5,6 C 79 % 997,3 hPa 0,0 l/m 0 min 0 min 0,0 UV-I 9 W/m 18,0 km/h (3 Bft)
27.12.2013 08:58 6,9 C 5,6 C 79 % 997,3 hPa 0,0 l/m 0 min 0 min 0,0 UV-I 11 W/m 41,2 km/h (6 Bft)
27.12.2013 09:00 6,9 C 5,6 C 79 % 997,2 hPa 0,0 l/m 0 min 0 min 0,0 UV-I 14 W/m 30,9 km/h (5 Bft)
27.12.2013 09:02 6,9 C 5,6 C 79 % 997,0 hPa 0,0 l/m 0 min 0 min 0,0 UV-I 16 W/m 30,9 km/h (5 Bft)
27.12.2013 09:04 6,9 C 5,6 C 79 % 996,9 hPa 0,0 l/m 0 min 0 min 0,0 UV-I 18 W/m 23,2 km/h (4 Bft)
27.12.2013 09:06 6,9 C 5,6 C 79 % 996,7 hPa 0,0 l/m 0 min 0 min 0,0 UV-I 19 W/m 30,9 km/h (5 Bft)
27.12.2013 09:08 6,9 C 5,6 C 79 % 996,6 hPa 0,0 l/m 0 min 0 min 0,0 UV-I 19 W/m 36,0 km/h (5 Bft)
27.12.2013 09:10 6,9 C 5,0 C 79 % 996,6 hPa 0,0 l/m 0 min 0 min 0,0 UV-I 19 W/m 33,5 km/h (5 Bft)
27.12.2013 09:12 6,9 C 5,0 C 79 % 996,7 hPa 0,0 l/m 0 min 0 min 0,0 UV-I 19 W/m 38,6 km/h (5 Bft)
27.12.2013 09:14 6,9 C 5,6 C 79 % 996,7 hPa 0,0 l/m 0 min 0 min 0,0 UV-I 19 W/m 28,3 km/h (4 Bft)
27.12.2013 09:16 6,9 C 5,6 C 79 % 996,6 hPa 0,0 l/m 0 min 0 min 0,0 UV-I 19 W/m 23,2 km/h (4 Bft)
27.12.2013 09:18 6,9 C 5,6 C 79 % 996,6 hPa 0,0 l/m 0 min 0 min 0,0 UV-I 19 W/m 28,3 km/h (4 Bft)
27.12.2013 09:20 6,9 C 5,6 C 79 % 996,7 hPa 0,0 l/m 0 min 0 min 0,0 UV-I 18 W/m 30,9 km/h (5 Bft)
27.12.2013 09:22 6,9 C 5,6 C 79 % 996,7 hPa 0,0 l/m 0 min 0 min 0,0 UV-I 18 W/m 33,5 km/h (5 Bft)
27.12.2013 09:24 6,9 C 5,6 C 79 % 996,6 hPa 0,0 l/m 0 min 0 min 0,0 UV-I 19 W/m 30,9 km/h (5 Bft)
27.12.2013 09:26 6,9 C 5,6 C 79 % 996,5 hPa 0,0 l/m 0 min 0 min 0,0 UV-I 19 W/m 36,0 km/h (5 Bft)
27.12.2013 09:28 6,9 C 5,6 C 79 % 996,3 hPa 0,0 l/m 0 min 0 min 0,0 UV-I 21 W/m 46,3 km/h (6 Bft)
27.12.2013 09:30 6,9 C 5,6 C 79 % 996,1 hPa 0,0 l/m 0 min 0 min 0,0 UV-I 21 W/m 43,8 km/h (6 Bft)
27.12.2013 09:32 6,9 C 5,6 C 79 % 995,9 hPa 0,0 l/m 0 min 0 min 0,0 UV-I 21 W/m 36,0 km/h (5 Bft)
27.12.2013 09:34 6,9 C 5,6 C 79 % 996,1 hPa 0,0 l/m 0 min 0 min 0,0 UV-I 21 W/m 61,8 km/h (7 Bft)
27.12.2013 09:36 6,9 C 5,6 C 79 % 996,1 hPa 0,0 l/m 0 min 0 min 0,0 UV-I 21 W/m 23,2 km/h (4 Bft)
27.12.2013 09:38 7,0 C 5,6 C 79 % 996,0 hPa 0,0 l/m 0 min 0 min 0,0 UV-I 21 W/m 43,8 km/h (6 Bft)
27.12.2013 09:40 7,0 C 5,6 C 79 % 996,2 hPa 0,0 l/m 0 min 0 min 0,0 UV-I 25 W/m 33,5 km/h (5 Bft)
27.12.2013 09:42 7,0 C 5,6 C 79 % 996,2 hPa 0,0 l/m 0 min 0 min 0,0 UV-I 28 W/m 23,2 km/h (4 Bft)
27.12.2013 09:44 6,9 C 5,6 C 79 % 996,2 hPa 0,0 l/m 0 min 0 min 0,0 UV-I 33 W/m 25,7 km/h (4 Bft)
27.12.2013 09:46 7,0 C 5,6 C 79 % 996,2 hPa 0,0 l/m 0 min 0 min 0,0 UV-I 33 W/m 23,2 km/h (4 Bft)
27.12.2013 09:48 7,0 C 5,6 C 79 % 996,3 hPa 0,0 l/m 0 min 0 min 0,0 UV-I 32 W/m 33,5 km/h (5 Bft)
27.12.2013 09:50 7,0 C 5,6 C 79 % 996,6 hPa 0,0 l/m 0 min 0 min 0,0 UV-I 28 W/m 18,0 km/h (3 Bft)
27.12.2013 09:52 7,1 C 5,6 C 79 % 996,6 hPa 0,0 l/m 0 min 0 min 0,0 UV-I 26 W/m 25,7 km/h (4 Bft)
27.12.2013 09:54 7,1 C 5,6 C 79 % 996,8 hPa 0,0 l/m 0 min 0 min 0,0 UV-I 25 W/m 30,9 km/h (5 Bft)
27.12.2013 09:56 7,1 C 5,6 C 78 % 996,7 hPa 0,0 l/m 0 min 0 min 0,0 UV-I 19 W/m 25,7 km/h (4 Bft)
27.12.2013 09:58 7,1 C 5,6 C 78 % 996,7 hPa 0,0 l/m 0 min 0 min 0,0 UV-I 19 W/m 28,3 km/h (4 Bft)
27.12.2013 10:00 7,2 C 6,1 C 78 % 996,7 hPa 0,0 l/m 0 min 0 min 0,0 UV-I 19 W/m 20,6 km/h (4 Bft)
27.12.2013 10:02 7,2 C 6,1 C 78 % 996,8 hPa 0,0 l/m 0 min 0 min 0,0 UV-I 19 W/m 30,9 km/h (5 Bft)
27.12.2013 10:04 7,3 C 6,1 C 78 % 996,9 hPa 0,0 l/m 0 min 0 min 0,0 UV-I 19 W/m 28,3 km/h (4 Bft)
27.12.2013 10:06 7,3 C 6,1 C 78 % 996,9 hPa 0,0 l/m 0 min 0 min 0,0 UV-I 18 W/m 38,6 km/h (5 Bft)
27.12.2013 10:08 7,3 C 6,1 C 77 % 996,8 hPa 0,0 l/m 0 min 0 min 0,0 UV-I 12 W/m 36,0 km/h (5 Bft)
27.12.2013 10:10 7,4 C 6,1 C 77 % 997,0 hPa 0,0 l/m 0 min 0 min 0,0 UV-I 11 W/m 18,0 km/h (3 Bft)
27.12.2013 10:12 7,4 C 6,1 C 77 % 997,0 hPa 0,0 l/m 0 min 0 min 0,0 UV-I 9 W/m 30,9 km/h (5 Bft)
27.12.2013 10:14 7,4 C 6,1 C 77 % 997,0 hPa 0,0 l/m 0 min 0 min 0,0 UV-I 9 W/m 30,9 km/h (5 Bft)
27.12.2013 10:16 7,4 C 6,1 C 77 % 997,1 hPa 0,0 l/m 0 min 0 min 0,0 UV-I 9 W/m 30,9 km/h (5 Bft)
27.12.2013 10:18 7,4 C 6,1 C 77 % 997,1 hPa 0,0 l/m 0 min 0 min 0,0 UV-I 9 W/m 41,2 km/h (6 Bft)
27.12.2013 10:20 7,5 C 6,1 C 77 % 997,1 hPa 0,0 l/m 0 min 0 min 0,0 UV-I 11 W/m 20,6 km/h (4 Bft)
27.12.2013 10:22 7,5 C 6,1 C 77 % 997,4 hPa 0,0 l/m 0 min 0 min 0,0 UV-I 11 W/m 28,3 km/h (4 Bft)
27.12.2013 10:24 7,5 C 6,1 C 77 % 997,2 hPa 0,0 l/m 0 min 0 min 0,0 UV-I 14 W/m 30,9 km/h (5 Bft)
27.12.2013 10:26 7,5 C 6,1 C 77 % 997,2 hPa 0,0 l/m 0 min 0 min 0,0 UV-I 25 W/m 41,2 km/h (6 Bft)
27.12.2013 10:28 7,5 C 6,1 C 77 % 997,3 hPa 0,0 l/m 0 min 0 min 0,0 UV-I 37 W/m 28,3 km/h (4 Bft)
27.12.2013 10:30 7,6 C 6,1 C 77 % 997,1 hPa 0,0 l/m 0 min 0 min 0,0 UV-I 47 W/m 36,0 km/h (5 Bft)
27.12.2013 10:32 7,6 C 6,1 C 77 % 997,1 hPa 0,0 l/m 0 min 0 min 0,0 UV-I 65 W/m 33,5 km/h (5 Bft)
27.12.2013 10:34 7,6 C 6,1 C 78 % 997,1 hPa 0,0 l/m 0 min 0 min 0,0 UV-I 74 W/m 23,2 km/h (4 Bft)
27.12.2013 10:36 7,6 C 6,1 C 78 % 997,0 hPa 0,0 l/m 0 min 0 min 0,0 UV-I 69 W/m 15,4 km/h (3 Bft)
27.12.2013 10:38 7,6 C 6,7 C 78 % 997,1 hPa 0,0 l/m 0 min 0 min 0,0 UV-I 65 W/m 38,6 km/h (5 Bft)
27.12.2013 10:40 7,6 C 6,7 C 78 % 997,0 hPa 0,0 l/m 0 min 0 min 0,0 UV-I 60 W/m 23,2 km/h (4 Bft)
27.12.2013 10:42 7,6 C 6,7 C 78 % 997,0 hPa 0,0 l/m 0 min 0 min 0,0 UV-I 62 W/m 30,9 km/h (5 Bft)
27.12.2013 10:44 7,7 C 6,7 C 78 % 997,0 hPa 0,0 l/m 0 min 0 min 0,0 UV-I 58 W/m 25,7 km/h (4 Bft)
27.12.2013 10:46 7,7 C 6,7 C 78 % 997,2 hPa 0,0 l/m 0 min 0 min 0,0 UV-I 72 W/m 25,7 km/h (4 Bft)
27.12.2013 10:48 7,7 C 6,7 C 78 % 997,2 hPa 0,0 l/m 0 min 0 min 0,0 UV-I 88 W/m 38,6 km/h (5 Bft)
27.12.2013 10:50 7,7 C 6,7 C 78 % 997,1 hPa 0,0 l/m 0 min 0 min 0,0 UV-I 72 W/m 23,2 km/h (4 Bft)
27.12.2013 10:52 7,8 C 6,7 C 78 % 997,0 hPa 0,0 l/m 0 min 0 min 0,0 UV-I 63 W/m 30,9 km/h (5 Bft)
27.12.2013 10:54 7,8 C 6,7 C 78 % 997,1 hPa 0,0 l/m 0 min 0 min 0,0 UV-I 56 W/m 30,9 km/h (5 Bft)
27.12.2013 10:56 7,8 C 6,7 C 78 % 996,9 hPa 0,0 l/m 0 min 0 min 0,0 UV-I 62 W/m 18,0 km/h (3 Bft)
27.12.2013 10:58 7,9 C 6,7 C 78 % 997,0 hPa 0,0 l/m 0 min 0 min 0,0 UV-I 56 W/m 30,9 km/h (5 Bft)
27.12.2013 11:00 7,9 C 6,7 C 78 % 996,9 hPa 0,0 l/m 0 min 2 min 0,0 UV-I 35 W/m 38,6 km/h (5 Bft)
27.12.2013 11:02 7,9 C 6,7 C 78 % 996,9 hPa 0,0 l/m 0 min 2 min 0,0 UV-I 28 W/m 25,7 km/h (4 Bft)
27.12.2013 11:04 7,9 C 6,1 C 78 % 996,8 hPa 0,0 l/m 0 min 0 min 0,0 UV-I 25 W/m 25,7 km/h (4 Bft)
27.12.2013 11:06 7,9 C 6,1 C 78 % 996,7 hPa 0,0 l/m 0 min 0 min 0,0 UV-I 37 W/m 25,7 km/h (4 Bft)
27.12.2013 11:08 7,9 C 6,1 C 79 % 996,9 hPa 0,0 l/m 0 min 2 min 0,0 UV-I 40 W/m 18,0 km/h (3 Bft)
27.12.2013 11:10 7,9 C 6,1 C 79 % 996,7 hPa 0,0 l/m 0 min 2 min 0,0 UV-I 40 W/m 38,6 km/h (5 Bft)
27.12.2013 11:12 7,9 C 6,1 C 79 % 996,7 hPa 0,0 l/m 0 min 2 min 0,0 UV-I 42 W/m 33,5 km/h (5 Bft)
27.12.2013 11:14 7,9 C 6,1 C 80 % 996,6 hPa 0,0 l/m 0 min 0 min 0,0 UV-I 51 W/m 30,9 km/h (5 Bft)
27.12.2013 11:16 7,9 C 6,1 C 81 % 996,7 hPa 0,0 l/m 0 min 0 min 0,0 UV-I 54 W/m 15,4 km/h (3 Bft)
27.12.2013 11:18 7,9 C 6,1 C 81 % 996,7 hPa 0,0 l/m 0 min 0 min 0,0 UV-I 42 W/m 10,3 km/h (2 Bft)
27.12.2013 11:20 7,9 C 6,1 C 81 % 996,6 hPa 0,0 l/m 0 min 2 min 0,0 UV-I 39 W/m 33,5 km/h (5 Bft)
27.12.2013 11:22 7,9 C 6,1 C 81 % 996,6 hPa 0,0 l/m 0 min 2 min 0,0 UV-I 39 W/m 25,7 km/h (4 Bft)
27.12.2013 11:24 7,9 C 6,7 C 81 % 996,6 hPa 0,0 l/m 0 min 0 min 0,0 UV-I 46 W/m 20,6 km/h (4 Bft)
27.12.2013 11:26 7,9 C 6,7 C 81 % 996,6 hPa 0,0 l/m 0 min 0 min 0,0 UV-I 54 W/m 23,2 km/h (4 Bft)
27.12.2013 11:28 8,0 C 6,7 C 82 % 996,5 hPa 0,0 l/m 0 min 0 min 0,0 UV-I 58 W/m 23,2 km/h (4 Bft)
27.12.2013 11:30 8,0 C 6,7 C 82 % 996,5 hPa 0,0 l/m 0 min 2 min 0,0 UV-I 63 W/m 25,7 km/h (4 Bft)
27.12.2013 11:32 8,1 C 6,7 C 82 % 996,5 hPa 0,0 l/m 0 min 2 min 0,0 UV-I 60 W/m 30,9 km/h (5 Bft)
27.12.2013 11:34 8,1 C 6,7 C 82 % 996,5 hPa 0,0 l/m 0 min 0 min 0,0 UV-I 58 W/m 23,2 km/h (4 Bft)
27.12.2013 11:36 8,1 C 6,7 C 82 % 996,5 hPa 0,0 l/m 0 min 2 min 0,0 UV-I 62 W/m 36,0 km/h (5 Bft)
27.12.2013 11:38 8,2 C 6,1 C 83 % 996,5 hPa 0,0 l/m 0 min 2 min 0,0 UV-I 63 W/m 28,3 km/h (4 Bft)
27.12.2013 11:40 8,2 C 6,1 C 83 % 996,5 hPa 0,0 l/m 0 min 2 min 0,0 UV-I 62 W/m 23,2 km/h (4 Bft)
27.12.2013 11:42 8,2 C 6,1 C 83 % 996,4 hPa 0,0 l/m 0 min 0 min 0,0 UV-I 53 W/m 23,2 km/h (4 Bft)
27.12.2013 11:44 8,2 C 6,1 C 84 % 996,4 hPa 0,0 l/m 0 min 0 min 0,0 UV-I 46 W/m 33,5 km/h (5 Bft)
27.12.2013 11:46 8,2 C 6,1 C 84 % 996,4 hPa 0,0 l/m 0 min 0 min 0,0 UV-I 37 W/m 23,2 km/h (4 Bft)
27.12.2013 11:48 8,2 C 6,1 C 84 % 996,4 hPa 0,0 l/m 0 min 0 min 0,0 UV-I 37 W/m 18,0 km/h (3 Bft)
27.12.2013 11:50 8,2 C 6,1 C 84 % 996,2 hPa 0,0 l/m 0 min 0 min 0,0 UV-I 44 W/m 28,3 km/h (4 Bft)
27.12.2013 11:52 8,2 C 6,1 C 84 % 996,1 hPa 0,0 l/m 0 min 2 min 0,0 UV-I 54 W/m 23,2 km/h (4 Bft)
27.12.2013 11:54 8,2 C 6,1 C 84 % 996,1 hPa 0,0 l/m 0 min 2 min 0,0 UV-I 62 W/m 28,3 km/h (4 Bft)
27.12.2013 11:56 8,2 C 6,1 C 84 % 996,1 hPa 0,0 l/m 0 min 2 min 0,0 UV-I 65 W/m 18,0 km/h (3 Bft)
27.12.2013 11:58 8,3 C 6,1 C 85 % 995,9 hPa 0,0 l/m 0 min 0 min 0,0 UV-I 60 W/m 54,1 km/h (7 Bft)
27.12.2013 12:00 8,3 C 6,1 C 85 % 995,8 hPa 0,0 l/m 0 min 2 min 0,0 UV-I 47 W/m 28,3 km/h (4 Bft)
27.12.2013 12:02 8,2 C 6,1 C 85 % 995,9 hPa 0,0 l/m 0 min 2 min 0,0 UV-I 46 W/m 18,0 km/h (3 Bft)
27.12.2013 12:04 8,2 C 6,1 C 85 % 995,9 hPa 0,0 l/m 0 min 2 min 0,0 UV-I 35 W/m 30,9 km/h (5 Bft)
27.12.2013 12:06 8,2 C 6,1 C 86 % 996,0 hPa 0,0 l/m 0 min 2 min 0,0 UV-I 26 W/m 33,5 km/h (5 Bft)
27.12.2013 12:08 8,2 C 6,1 C 86 % 996,0 hPa 0,0 l/m 0 min 0 min 0,0 UV-I 28 W/m 20,6 km/h (4 Bft)
27.12.2013 12:10 8,2 C 6,1 C 86 % 996,0 hPa 0,0 l/m 0 min 0 min 0,0 UV-I 32 W/m 23,2 km/h (4 Bft)
27.12.2013 12:12 8,2 C 6,1 C 86 % 996,0 hPa 0,0 l/m 0 min 0 min 0,0 UV-I 32 W/m 18,0 km/h (3 Bft)
27.12.2013 12:14 8,2 C 5,6 C 86 % 996,0 hPa 0,0 l/m 0 min 0 min 0,0 UV-I 25 W/m 30,9 km/h (5 Bft)
27.12.2013 12:16 8,2 C 5,6 C 86 % 995,9 hPa 0,0 l/m 0 min 0 min 0,0 UV-I 21 W/m 18,0 km/h (3 Bft)
27.12.2013 12:18 8,2 C 5,6 C 86 % 995,9 hPa 0,0 l/m 0 min 0 min 0,0 UV-I 21 W/m 18,0 km/h (3 Bft)
27.12.2013 12:20 8,1 C 5,6 C 85 % 996,0 hPa 0,0 l/m 0 min 0 min 0,0 UV-I 19 W/m 18,0 km/h (3 Bft)
27.12.2013 12:22 8,1 C 5,6 C 85 % 995,9 hPa 0,0 l/m 0 min 0 min 0,0 UV-I 25 W/m 25,7 km/h (4 Bft)
27.12.2013 12:24 8,1 C 6,1 C 85 % 995,9 hPa 0,0 l/m 0 min 0 min 0,0 UV-I 26 W/m 20,6 km/h (4 Bft)
27.12.2013 12:26 8,1 C 6,1 C 85 % 996,0 hPa 0,0 l/m 0 min 0 min 0,0 UV-I 26 W/m 20,6 km/h (4 Bft)
27.12.2013 12:28 8,2 C 6,1 C 85 % 996,0 hPa 0,0 l/m 0 min 0 min 0,0 UV-I 33 W/m 23,2 km/h (4 Bft)
27.12.2013 12:30 8,2 C 6,1 C 85 % 996,0 hPa 0,0 l/m 0 min 2 min 0,0 UV-I 32 W/m 12,9 km/h (3 Bft)
27.12.2013 12:32 8,2 C 6,1 C 85 % 995,9 hPa 0,0 l/m 0 min 2 min 0,0 UV-I 32 W/m 23,2 km/h (4 Bft)
27.12.2013 12:34 8,2 C 6,1 C 85 % 995,9 hPa 0,0 l/m 0 min 2 min 0,0 UV-I 33 W/m 23,2 km/h (4 Bft)
27.12.2013 12:36 8,3 C 6,1 C 86 % 995,9 hPa 0,0 l/m 0 min 2 min 0,0 UV-I 30 W/m 25,7 km/h (4 Bft)
27.12.2013 12:38 8,3 C 6,1 C 86 % 995,9 hPa 0,0 l/m 0 min 2 min 0,0 UV-I 23 W/m 18,0 km/h (3 Bft)
27.12.2013 12:40 8,3 C 6,1 C 86 % 996,1 hPa 0,2 l/m 0 min 2 min 0,0 UV-I 23 W/m 20,6 km/h (4 Bft)
27.12.2013 12:42 8,3 C 6,1 C 86 % 996,1 hPa 0,0 l/m 0 min 2 min 0,0 UV-I 26 W/m 15,4 km/h (3 Bft)
27.12.2013 12:44 8,3 C 6,1 C 86 % 996,0 hPa 0,0 l/m 0 min 2 min 0,0 UV-I 25 W/m 20,6 km/h (4 Bft)
27.12.2013 12:46 8,3 C 6,1 C 87 % 996,0 hPa 0,0 l/m 0 min 2 min 0,0 UV-I 28 W/m 15,4 km/h (3 Bft)
27.12.2013 12:48 8,3 C 6,1 C 86 % 996,0 hPa 0,0 l/m 0 min 2 min 0,0 UV-I 26 W/m 18,0 km/h (3 Bft)
27.12.2013 12:50 8,3 C 6,1 C 87 % 996,0 hPa 0,0 l/m 0 min 2 min 0,0 UV-I 26 W/m 12,9 km/h (3 Bft)
27.12.2013 12:52 8,3 C 6,1 C 87 % 995,9 hPa 0,0 l/m 0 min 2 min 0,0 UV-I 23 W/m 25,7 km/h (4 Bft)
27.12.2013 12:54 8,3 C 6,1 C 87 % 995,9 hPa 0,0 l/m 0 min 0 min 0,0 UV-I 26 W/m 15,4 km/h (3 Bft)
27.12.2013 12:56 8,3 C 6,1 C 87 % 995,9 hPa 0,0 l/m 0 min 2 min 0,0 UV-I 30 W/m 25,7 km/h (4 Bft)
27.12.2013 12:58 8,4 C 6,1 C 87 % 995,9 hPa 0,0 l/m 0 min 0 min 0,0 UV-I 28 W/m 10,3 km/h (2 Bft)
27.12.2013 13:00 8,4 C 6,1 C 86 % 995,9 hPa 0,0 l/m 0 min 0 min 0,0 UV-I 32 W/m 12,9 km/h (3 Bft)
27.12.2013 13:02 8,5 C 6,7 C 86 % 995,9 hPa 0,0 l/m 0 min 0 min 0,0 UV-I 47 W/m 18,0 km/h (3 Bft)
27.12.2013 13:04 8,5 C 6,7 C 86 % 995,9 hPa 0,0 l/m 0 min 0 min 0,0 UV-I 53 W/m 18,0 km/h (3 Bft)
27.12.2013 13:06 8,6 C 6,7 C 86 % 995,6 hPa 0,0 l/m 0 min 0 min 0,0 UV-I 49 W/m 25,7 km/h (4 Bft)
27.12.2013 13:08 8,6 C 6,7 C 86 % 995,8 hPa 0,0 l/m 0 min 2 min 0,0 UV-I 47 W/m 30,9 km/h (5 Bft)
27.12.2013 13:10 8,7 C 6,7 C 86 % 995,7 hPa 0,0 l/m 0 min 0 min 0,0 UV-I 33 W/m 23,2 km/h (4 Bft)
27.12.2013 13:12 8,7 C 6,7 C 85 % 995,8 hPa 0,0 l/m 0 min 0 min 0,0 UV-I 28 W/m 20,6 km/h (4 Bft)
27.12.2013 13:14 8,8 C 6,7 C 85 % 995,8 hPa 0,0 l/m 0 min 0 min 0,0 UV-I 28 W/m 25,7 km/h (4 Bft)
27.12.2013 13:16 8,9 C 6,7 C 85 % 995,5 hPa 0,0 l/m 0 min 0 min 0,0 UV-I 35 W/m 15,4 km/h (3 Bft)
27.12.2013 13:18 8,9 C 6,7 C 85 % 995,6 hPa 0,0 l/m 0 min 0 min 0,0 UV-I 32 W/m 15,4 km/h (3 Bft)
27.12.2013 13:20 8,9 C 6,7 C 84 % 995,6 hPa 0,0 l/m 0 min 0 min 0,0 UV-I 26 W/m 25,7 km/h (4 Bft)
27.12.2013 13:22 9,1 C 6,7 C 84 % 995,5 hPa 0,0 l/m 0 min 0 min 0,0 UV-I 33 W/m 28,3 km/h (4 Bft)
27.12.2013 13:24 9,1 C 7,2 C 84 % 995,5 hPa 0,0 l/m 0 min 0 min 0,0 UV-I 40 W/m 28,3 km/h (4 Bft)
27.12.2013 13:26 9,2 C 7,2 C 83 % 995,5 hPa 0,0 l/m 0 min 0 min 0,0 UV-I 30 W/m 25,7 km/h (4 Bft)
27.12.2013 13:28 9,2 C 7,2 C 83 % 995,5 hPa 0,0 l/m 0 min 0 min 0,0 UV-I 32 W/m 18,0 km/h (3 Bft)
27.12.2013 13:30 9,3 C 7,2 C 83 % 995,4 hPa 0,0 l/m 0 min 0 min 0,0 UV-I 33 W/m 23,2 km/h (4 Bft)
27.12.2013 13:32 9,3 C 7,2 C 83 % 995,4 hPa 0,0 l/m 0 min 0 min 0,0 UV-I 35 W/m 18,0 km/h (3 Bft)
27.12.2013 13:34 9,3 C 7,2 C 83 % 995,4 hPa 0,0 l/m 0 min 0 min 0,0 UV-I 37 W/m 15,4 km/h (3 Bft)
27.12.2013 13:36 9,4 C 7,2 C 83 % 995,3 hPa 0,0 l/m 0 min 0 min 0,0 UV-I 33 W/m 15,4 km/h (3 Bft)
27.12.2013 13:38 9,4 C 7,2 C 83 % 995,4 hPa 0,0 l/m 0 min 0 min 0,0 UV-I 58 W/m 20,6 km/h (4 Bft)
27.12.2013 13:40 9,4 C 7,2 C 83 % 995,3 hPa 0,0 l/m 0 min 0 min 0,0 UV-I 51 W/m 20,6 km/h (4 Bft)
27.12.2013 13:42 9,4 C 7,2 C 83 % 995,2 hPa 0,0 l/m 0 min 0 min 0,0 UV-I 39 W/m 20,6 km/h (4 Bft)
27.12.2013 13:44 9,4 C 7,2 C 83 % 995,2 hPa 0,0 l/m 0 min 0 min 0,0 UV-I 40 W/m 38,6 km/h (5 Bft)
27.12.2013 13:46 9,5 C 7,8 C 83 % 995,2 hPa 0,0 l/m 0 min 0 min 0,0 UV-I 49 W/m 30,9 km/h (5 Bft)
27.12.2013 13:48 9,5 C 7,8 C 83 % 995,1 hPa 0,0 l/m 0 min 0 min 0,0 UV-I 46 W/m 28,3 km/h (4 Bft)
27.12.2013 13:50 9,6 C 7,8 C 83 % 995,3 hPa 0,0 l/m 0 min 0 min 0,0 UV-I 32 W/m 28,3 km/h (4 Bft)
27.12.2013 13:52 9,6 C 7,8 C 83 % 995,3 hPa 0,0 l/m 0 min 0 min 0,0 UV-I 42 W/m 15,4 km/h (3 Bft)
27.12.2013 13:54 9,6 C 7,8 C 83 % 995,2 hPa 0,0 l/m 0 min 0 min 0,0 UV-I 37 W/m 25,7 km/h (4 Bft)
27.12.2013 13:56 9,7 C 7,8 C 83 % 995,3 hPa 0,0 l/m 0 min 0 min 0,0 UV-I 30 W/m 33,5 km/h (5 Bft)
27.12.2013 13:58 9,7 C 7,8 C 83 % 995,4 hPa 0,0 l/m 0 min 0 min 0,0 UV-I 40 W/m 15,4 km/h (3 Bft)
27.12.2013 14:00 9,7 C 7,8 C 83 % 995,4 hPa 0,0 l/m 0 min 2 min 0,0 UV-I 30 W/m 20,6 km/h (4 Bft)
27.12.2013 14:02 9,7 C 7,8 C 83 % 995,4 hPa 0,0 l/m 0 min 2 min 0,0 UV-I 28 W/m 23,2 km/h (4 Bft)
27.12.2013 14:04 9,8 C 7,8 C 83 % 995,5 hPa 0,0 l/m 0 min 2 min 0,0 UV-I 30 W/m 23,2 km/h (4 Bft)
27.12.2013 14:06 9,8 C 7,2 C 83 % 995,6 hPa 0,0 l/m 0 min 2 min 0,0 UV-I 32 W/m 28,3 km/h (4 Bft)
27.12.2013 14:08 9,8 C 7,2 C 83 % 995,7 hPa 0,0 l/m 0 min 2 min 0,0 UV-I 28 W/m 23,2 km/h (4 Bft)
27.12.2013 14:10 9,8 C 7,2 C 84 % 995,6 hPa 0,0 l/m 0 min 2 min 0,0 UV-I 26 W/m 10,3 km/h (2 Bft)
27.12.2013 14:12 9,7 C 7,2 C 84 % 995,7 hPa 0,0 l/m 0 min 2 min 0,0 UV-I 30 W/m 28,3 km/h (4 Bft)
27.12.2013 14:14 9,7 C 6,7 C 84 % 995,9 hPa 0,0 l/m 0 min 2 min 0,0 UV-I 26 W/m 23,2 km/h (4 Bft)
27.12.2013 14:16 9,7 C 6,7 C 85 % 995,7 hPa 0,0 l/m 0 min 2 min 0,0 UV-I 23 W/m 20,6 km/h (4 Bft)
27.12.2013 14:18 9,7 C 6,7 C 85 % 995,8 hPa 0,2 l/m 0 min 2 min 0,0 UV-I 28 W/m 12,9 km/h (3 Bft)
27.12.2013 14:20 9,6 C 6,7 C 86 % 995,9 hPa 0,0 l/m 0 min 2 min 0,0 UV-I 26 W/m 23,2 km/h (4 Bft)
27.12.2013 14:22 9,6 C 6,7 C 86 % 995,8 hPa 0,0 l/m 0 min 2 min 0,0 UV-I 23 W/m 7,7 km/h (2 Bft)
27.12.2013 14:24 9,5 C 6,7 C 87 % 995,8 hPa 0,0 l/m 0 min 2 min 0,0 UV-I 23 W/m 18,0 km/h (3 Bft)
27.12.2013 14:26 9,4 C 6,7 C 87 % 995,7 hPa 0,0 l/m 0 min 2 min 0,0 UV-I 21 W/m 7,7 km/h (2 Bft)
27.12.2013 14:28 9,4 C 6,7 C 87 % 995,7 hPa 0,0 l/m 0 min 2 min 0,0 UV-I 19 W/m 20,6 km/h (4 Bft)
27.12.2013 14:30 9,3 C 6,7 C 87 % 995,6 hPa 0,0 l/m 0 min 0 min 0,0 UV-I 19 W/m 12,9 km/h (3 Bft)
27.12.2013 14:32 9,2 C 6,7 C 87 % 995,6 hPa 0,0 l/m 0 min 0 min 0,0 UV-I 16 W/m 12,9 km/h (3 Bft)
27.12.2013 14:34 9,2 C 6,7 C 87 % 995,7 hPa 0,0 l/m 0 min 2 min 0,0 UV-I 14 W/m 20,6 km/h (4 Bft)
27.12.2013 14:36 9,1 C 6,7 C 88 % 995,5 hPa 0,0 l/m 0 min 2 min 0,0 UV-I 14 W/m 30,9 km/h (5 Bft)
27.12.2013 14:38 8,9 C 6,1 C 88 % 995,5 hPa 0,0 l/m 0 min 0 min 0,0 UV-I 14 W/m 20,6 km/h (4 Bft)
27.12.2013 14:40 8,9 C 6,1 C 88 % 995,6 hPa 0,0 l/m 0 min 0 min 0,0 UV-I 16 W/m 7,7 km/h (2 Bft)
27.12.2013 14:42 8,8 C 6,1 C 88 % 995,5 hPa 0,0 l/m 0 min 0 min 0,0 UV-I 18 W/m 15,4 km/h (3 Bft)
27.12.2013 14:44 8,8 C 6,1 C 88 % 995,5 hPa 0,0 l/m 0 min 0 min 0,0 UV-I 18 W/m 20,6 km/h (4 Bft)
27.12.2013 14:46 8,7 C 6,1 C 89 % 995,4 hPa 0,0 l/m 0 min 2 min 0,0 UV-I 18 W/m 28,3 km/h (4 Bft)
27.12.2013 14:48 8,7 C 6,1 C 89 % 995,3 hPa 0,0 l/m 0 min 0 min 0,0 UV-I 18 W/m 20,6 km/h (4 Bft)
27.12.2013 14:50 8,7 C 6,1 C 89 % 995,3 hPa 0,0 l/m 0 min 0 min 0,0 UV-I 16 W/m 18,0 km/h (3 Bft)
27.12.2013 14:52 8,6 C 6,1 C 89 % 995,3 hPa 0,0 l/m 0 min 0 min 0,0 UV-I 16 W/m 12,9 km/h (3 Bft)
27.12.2013 14:54 8,6 C 6,1 C 89 % 995,3 hPa 0,0 l/m 0 min 0 min 0,0 UV-I 18 W/m 23,2 km/h (4 Bft)
27.12.2013 14:56 8,6 C 6,1 C 89 % 995,2 hPa 0,0 l/m 0 min 0 min 0,0 UV-I 16 W/m 23,2 km/h (4 Bft)
27.12.2013 14:58 8,6 C 6,1 C 89 % 995,1 hPa 0,0 l/m 0 min 0 min 0,0 UV-I 16 W/m 20,6 km/h (4 Bft)
27.12.2013 15:00 8,5 C 6,1 C 89 % 995,2 hPa 0,0 l/m 0 min 0 min 0,0 UV-I 16 W/m 25,7 km/h (4 Bft)
27.12.2013 15:02 8,5 C 6,1 C 89 % 995,2 hPa 0,0 l/m 0 min 0 min 0,0 UV-I 16 W/m 18,0 km/h (3 Bft)
27.12.2013 15:04 8,4 C 6,1 C 90 % 995,1 hPa 0,0 l/m 0 min 0 min 0,0 UV-I 16 W/m 18,0 km/h (3 Bft)
27.12.2013 15:06 8,4 C 6,1 C 90 % 995,1 hPa 0,0 l/m 0 min 0 min 0,0 UV-I 14 W/m 15,4 km/h (3 Bft)
27.12.2013 15:08 8,4 C 6,1 C 90 % 995,3 hPa 0,0 l/m 0 min 2 min 0,0 UV-I 16 W/m 30,9 km/h (5 Bft)
27.12.2013 15:10 8,4 C 6,1 C 90 % 995,3 hPa 0,0 l/m 0 min 0 min 0,0 UV-I 12 W/m 23,2 km/h (4 Bft)
27.12.2013 15:12 8,4 C 6,1 C 90 % 995,3 hPa 0,0 l/m 0 min 0 min 0,0 UV-I 12 W/m 23,2 km/h (4 Bft)
27.12.2013 15:14 8,4 C 6,1 C 90 % 995,3 hPa 0,0 l/m 0 min 0 min 0,0 UV-I 11 W/m 18,0 km/h (3 Bft)
27.12.2013 15:16 8,4 C 6,1 C 90 % 995,5 hPa 0,0 l/m 0 min 0 min 0,0 UV-I 9 W/m 38,6 km/h (5 Bft)
27.12.2013 15:18 8,4 C 6,1 C 90 % 995,5 hPa 0,0 l/m 0 min 0 min 0,0 UV-I 7 W/m 7,7 km/h (2 Bft)
27.12.2013 15:20 8,4 C 6,1 C 90 % 995,5 hPa 0,0 l/m 0 min 2 min 0,0 UV-I 7 W/m 15,4 km/h (3 Bft)
27.12.2013 15:22 8,4 C 6,1 C 90 % 995,5 hPa 0,0 l/m 0 min 0 min 0,0 UV-I 7 W/m 12,9 km/h (3 Bft)
27.12.2013 15:24 8,4 C 6,1 C 90 % 995,5 hPa 0,0 l/m 0 min 0 min 0,0 UV-I 7 W/m 18,0 km/h (3 Bft)
27.12.2013 15:26 8,4 C 6,1 C 90 % 995,6 hPa 0,0 l/m 0 min 2 min 0,0 UV-I 7 W/m 10,3 km/h (2 Bft)
27.12.2013 15:28 8,4 C 6,1 C 90 % 995,7 hPa 0,0 l/m 0 min 0 min 0,0 UV-I 7 W/m 15,4 km/h (3 Bft)
27.12.2013 15:30 8,4 C 6,7 C 90 % 995,7 hPa 0,0 l/m 0 min 0 min 0,0 UV-I 9 W/m 12,9 km/h (3 Bft)
27.12.2013 15:32 8,4 C 6,7 C 90 % 995,7 hPa 0,0 l/m 0 min 0 min 0,0 UV-I 9 W/m 25,7 km/h (4 Bft)
27.12.2013 15:34 8,4 C 6,7 C 90 % 995,8 hPa 0,0 l/m 0 min 0 min 0,0 UV-I 9 W/m 28,3 km/h (4 Bft)
27.12.2013 15:36 8,5 C 6,7 C 90 % 995,7 hPa 0,0 l/m 0 min 0 min 0,0 UV-I 7 W/m 12,9 km/h (3 Bft)
27.12.2013 15:38 8,5 C 6,7 C 90 % 995,7 hPa 0,0 l/m 0 min 0 min 0,0 UV-I 5 W/m 10,3 km/h (2 Bft)
27.12.2013 15:40 8,5 C 6,7 C 90 % 995,8 hPa 0,0 l/m 0 min 0 min 0,0 UV-I 7 W/m 23,2 km/h (4 Bft)
27.12.2013 15:42 8,5 C 6,7 C 90 % 995,7 hPa 0,0 l/m 0 min 0 min 0,0 UV-I 7 W/m 2,6 km/h (1 Bft)
27.12.2013 15:44 8,5 C 6,7 C 90 % 995,7 hPa 0,0 l/m 0 min 0 min 0,0 UV-I 7 W/m 12,9 km/h (3 Bft)
27.12.2013 15:46 8,5 C 6,7 C 90 % 995,7 hPa 0,0 l/m 0 min 0 min 0,0 UV-I 9 W/m 18,0 km/h (3 Bft)
27.12.2013 15:48 8,5 C 6,7 C 90 % 995,6 hPa 0,0 l/m 0 min 0 min 0,0 UV-I 12 W/m 23,2 km/h (4 Bft)
27.12.2013 15:50 8,5 C 6,7 C 90 % 995,6 hPa 0,0 l/m 0 min 0 min 0,0 UV-I 16 W/m 15,4 km/h (3 Bft)
27.12.2013 15:52 8,5 C 6,7 C 90 % 995,6 hPa 0,0 l/m 0 min 2 min 0,0 UV-I 14 W/m 10,3 km/h (2 Bft)
27.12.2013 15:54 8,6 C 6,7 C 90 % 995,6 hPa 0,0 l/m 0 min 2 min 0,0 UV-I 7 W/m 20,6 km/h (4 Bft)
27.12.2013 15:56 8,6 C 6,7 C 90 % 995,6 hPa 0,0 l/m 0 min 2 min 0,0 UV-I 5 W/m 18,0 km/h (3 Bft)
27.12.2013 15:58 8,6 C 6,7 C 90 % 995,6 hPa 0,0 l/m 0 min 0 min 0,0 UV-I 7 W/m 18,0 km/h (3 Bft)
27.12.2013 16:00 8,6 C 6,7 C 90 % 995,6 hPa 0,0 l/m 0 min 0 min 0,0 UV-I 7 W/m 18,0 km/h (3 Bft)
27.12.2013 16:02 8,6 C 6,7 C 91 % 995,6 hPa 0,0 l/m 0 min 0 min 0,0 UV-I 7 W/m 18,0 km/h (3 Bft)
27.12.2013 16:04 8,6 C 6,7 C 91 % 995,6 hPa 0,0 l/m 0 min 0 min 0,0 UV-I 5 W/m 18,0 km/h (3 Bft)
27.12.2013 16:06 8,6 C 6,7 C 91 % 995,5 hPa 0,0 l/m 0 min 0 min 0,0 UV-I 0 W/m 12,9 km/h (3 Bft)
27.12.2013 16:08 8,6 C 6,7 C 91 % 995,6 hPa 0,0 l/m 0 min 0 min 0,0 UV-I 0 W/m 25,7 km/h (4 Bft)
27.12.2013 16:10 8,6 C 6,7 C 91 % 995,6 hPa 0,0 l/m 0 min 0 min 0,0 UV-I 0 W/m 18,0 km/h (3 Bft)
27.12.2013 16:12 8,6 C 6,7 C 91 % 995,5 hPa 0,0 l/m 0 min 0 min 0,0 UV-I 0 W/m 10,3 km/h (2 Bft)
27.12.2013 16:14 8,6 C 6,7 C 91 % 995,6 hPa 0,0 l/m 0 min 0 min 0,0 UV-I 0 W/m 18,0 km/h (3 Bft)
27.12.2013 16:16 8,6 C 6,7 C 90 % 995,5 hPa 0,0 l/m 0 min 0 min 0,0 UV-I 0 W/m 15,4 km/h (3 Bft)
27.12.2013 16:18 8,7 C 6,7 C 90 % 995,5 hPa 0,0 l/m 0 min 0 min 0,0 UV-I 0 W/m 28,3 km/h (4 Bft)
27.12.2013 16:20 8,7 C 6,7 C 90 % 995,4 hPa 0,0 l/m 0 min 0 min 0,0 UV-I 0 W/m 15,4 km/h (3 Bft)
27.12.2013 16:22 8,7 C 6,7 C 90 % 995,5 hPa 0,0 l/m 0 min 0 min 0,0 UV-I 0 W/m 18,0 km/h (3 Bft)
27.12.2013 16:24 8,7 C 6,7 C 90 % 995,5 hPa 0,0 l/m 0 min 0 min 0,0 UV-I 0 W/m 18,0 km/h (3 Bft)
27.12.2013 16:26 8,7 C 6,7 C 90 % 995,5 hPa 0,0 l/m 0 min 0 min 0,0 UV-I 0 W/m 12,9 km/h (3 Bft)
27.12.2013 16:28 8,7 C 6,7 C 90 % 995,4 hPa 0,0 l/m 0 min 0 min 0,0 UV-I 0 W/m 20,6 km/h (4 Bft)
27.12.2013 16:30 8,7 C 6,7 C 90 % 995,4 hPa 0,0 l/m 0 min 0 min 0,0 UV-I 0 W/m 18,0 km/h (3 Bft)
27.12.2013 16:32 8,7 C 6,7 C 90 % 995,5 hPa 0,0 l/m 0 min 0 min 0,0 UV-I 0 W/m 20,6 km/h (4 Bft)
27.12.2013 16:34 8,8 C 6,7 C 90 % 995,4 hPa 0,0 l/m 0 min 0 min 0,0 UV-I 0 W/m 12,9 km/h (3 Bft)
27.12.2013 16:36 8,8 C 6,7 C 89 % 995,5 hPa 0,0 l/m 0 min 0 min 0,0 UV-I 0 W/m 15,4 km/h (3 Bft)
27.12.2013 16:38 8,8 C 6,7 C 89 % 995,5 hPa 0,0 l/m 0 min 0 min 0,0 UV-I 0 W/m 33,5 km/h (5 Bft)
27.12.2013 16:40 8,8 C 6,7 C 89 % 995,5 hPa 0,0 l/m 0 min 0 min 0,0 UV-I 0 W/m 15,4 km/h (3 Bft)
27.12.2013 16:42 8,8 C 6,7 C 89 % 995,5 hPa 0,0 l/m 0 min 0 min 0,0 UV-I 0 W/m 18,0 km/h (3 Bft)
27.12.2013 16:44 8,8 C 6,7 C 89 % 995,5 hPa 0,0 l/m 0 min 0 min 0,0 UV-I 0 W/m 23,2 km/h (4 Bft)
27.12.2013 16:46 8,8 C 6,7 C 89 % 995,4 hPa 0,0 l/m 0 min 0 min 0,0 UV-I 0 W/m 25,7 km/h (4 Bft)
27.12.2013 16:48 8,8 C 6,7 C 89 % 995,4 hPa 0,0 l/m 0 min 0 min 0,0 UV-I 0 W/m 18,0 km/h (3 Bft)
27.12.2013 16:50 8,8 C 6,7 C 88 % 995,5 hPa 0,0 l/m 0 min 0 min 0,0 UV-I 0 W/m 18,0 km/h (3 Bft)
27.12.2013 16:52 8,9 C 6,7 C 88 % 995,5 hPa 0,0 l/m 0 min 0 min 0,0 UV-I 0 W/m 18,0 km/h (3 Bft)
27.12.2013 16:54 8,9 C 6,7 C 88 % 995,5 hPa 0,0 l/m 0 min 0 min 0,0 UV-I 0 W/m 15,4 km/h (3 Bft)
27.12.2013 16:56 8,9 C 6,7 C 88 % 995,5 hPa 0,0 l/m 0 min 0 min 0,0 UV-I 0 W/m 23,2 km/h (4 Bft)
27.12.2013 16:58 8,9 C 6,7 C 88 % 995,5 hPa 0,0 l/m 0 min 0 min 0,0 UV-I 0 W/m 18,0 km/h (3 Bft)
27.12.2013 17:00 8,9 C 6,7 C 88 % 995,5 hPa 0,0 l/m 0 min 0 min 0,0 UV-I 0 W/m 25,7 km/h (4 Bft)
27.12.2013 17:02 8,9 C 6,7 C 88 % 995,6 hPa 0,0 l/m 0 min 0 min 0,0 UV-I 0 W/m 20,6 km/h (4 Bft)
27.12.2013 17:04 8,9 C 6,7 C 88 % 995,5 hPa 0,0 l/m 0 min 0 min 0,0 UV-I 0 W/m 15,4 km/h (3 Bft)
27.12.2013 17:06 8,9 C 6,7 C 88 % 995,5 hPa 0,0 l/m 0 min 0 min 0,0 UV-I 0 W/m 10,3 km/h (2 Bft)
27.12.2013 17:08 9,0 C 6,7 C 88 % 995,5 hPa 0,0 l/m 0 min 0 min 0,0 UV-I 0 W/m 12,9 km/h (3 Bft)
27.12.2013 17:10 9,0 C 6,7 C 88 % 995,6 hPa 0,0 l/m 0 min 0 min 0,0 UV-I 0 W/m 18,0 km/h (3 Bft)
27.12.2013 17:12 9,0 C 6,7 C 87 % 995,6 hPa 0,0 l/m 0 min 0 min 0,0 UV-I 0 W/m 12,9 km/h (3 Bft)
27.12.2013 17:14 9,0 C 6,7 C 87 % 995,7 hPa 0,0 l/m 0 min 0 min 0,0 UV-I 0 W/m 10,3 km/h (2 Bft)
27.12.2013 17:16 9,0 C 6,7 C 87 % 995,6 hPa 0,0 l/m 0 min 0 min 0,0 UV-I 0 W/m 12,9 km/h (3 Bft)
27.12.2013 17:18 9,1 C 6,7 C 87 % 995,6 hPa 0,0 l/m 0 min 0 min 0,0 UV-I 0 W/m 10,3 km/h (2 Bft)
27.12.2013 17:20 9,1 C 7,2 C 87 % 995,6 hPa 0,0 l/m 0 min 0 min 0,0 UV-I 0 W/m 10,3 km/h (2 Bft)
27.12.2013 17:22 9,1 C 7,2 C 87 % 995,6 hPa 0,0 l/m 0 min 0 min 0,0 UV-I 0 W/m 18,0 km/h (3 Bft)
27.12.2013 17:24 9,1 C 7,2 C 87 % 995,6 hPa 0,0 l/m 0 min 0 min 0,0 UV-I 0 W/m 20,6 km/h (4 Bft)
27.12.2013 17:26 9,1 C 7,2 C 87 % 995,5 hPa 0,0 l/m 0 min 0 min 0,0 UV-I 0 W/m 15,4 km/h (3 Bft)
27.12.2013 17:28 9,1 C 7,2 C 87 % 995,5 hPa 0,0 l/m 0 min 0 min 0,0 UV-I 0 W/m 28,3 km/h (4 Bft)
27.12.2013 17:30 9,1 C 7,2 C 87 % 995,5 hPa 0,0 l/m 0 min 0 min 0,0 UV-I 0 W/m 25,7 km/h (4 Bft)
27.12.2013 17:32 9,1 C 7,2 C 87 % 995,5 hPa 0,0 l/m 0 min 0 min 0,0 UV-I 0 W/m 28,3 km/h (4 Bft)
27.12.2013 17:34 9,1 C 7,2 C 87 % 995,5 hPa 0,0 l/m 0 min 0 min 0,0 UV-I 0 W/m 12,9 km/h (3 Bft)
27.12.2013 17:36 9,1 C 7,2 C 87 % 995,5 hPa 0,0 l/m 0 min 0 min 0,0 UV-I 0 W/m 25,7 km/h (4 Bft)
27.12.2013 17:38 9,1 C 7,2 C 87 % 995,6 hPa 0,0 l/m 0 min 0 min 0,0 UV-I 0 W/m 18,0 km/h (3 Bft)
27.12.2013 17:40 9,1 C 7,2 C 87 % 995,6 hPa 0,0 l/m 0 min 0 min 0,0 UV-I 0 W/m 12,9 km/h (3 Bft)
27.12.2013 17:42 9,1 C 7,2 C 87 % 995,5 hPa 0,0 l/m 0 min 0 min 0,0 UV-I 0 W/m 23,2 km/h (4 Bft)
27.12.2013 17:44 9,1 C 7,2 C 87 % 995,5 hPa 0,0 l/m 0 min 0 min 0,0 UV-I 0 W/m 25,7 km/h (4 Bft)
27.12.2013 17:46 9,1 C 7,2 C 86 % 995,5 hPa 0,0 l/m 0 min 0 min 0,0 UV-I 0 W/m 10,3 km/h (2 Bft)
27.12.2013 17:48 9,2 C 7,2 C 86 % 995,5 hPa 0,0 l/m 0 min 0 min 0,0 UV-I 0 W/m 12,9 km/h (3 Bft)
27.12.2013 17:50 9,2 C 7,2 C 86 % 995,5 hPa 0,0 l/m 0 min 0 min 0,0 UV-I 0 W/m 23,2 km/h (4 Bft)
27.12.2013 17:52 9,2 C 7,2 C 86 % 995,4 hPa 0,0 l/m 0 min 0 min 0,0 UV-I 0 W/m 23,2 km/h (4 Bft)
27.12.2013 17:54 9,2 C 7,2 C 86 % 995,5 hPa 0,0 l/m 0 min 0 min 0,0 UV-I 0 W/m 28,3 km/h (4 Bft)
27.12.2013 17:56 9,2 C 7,2 C 86 % 995,5 hPa 0,0 l/m 0 min 0 min 0,0 UV-I 0 W/m 15,4 km/h (3 Bft)
27.12.2013 17:58 9,2 C 7,2 C 86 % 995,4 hPa 0,0 l/m 0 min 0 min 0,0 UV-I 0 W/m 28,3 km/h (4 Bft)
27.12.2013 18:00 9,2 C 7,2 C 86 % 995,5 hPa 0,0 l/m 0 min 0 min 0,0 UV-I 0 W/m 15,4 km/h (3 Bft)
27.12.2013 18:02 9,2 C 7,2 C 86 % 995,4 hPa 0,0 l/m 0 min 0 min 0,0 UV-I 0 W/m 28,3 km/h (4 Bft)
27.12.2013 18:04 9,2 C 7,2 C 86 % 995,5 hPa 0,0 l/m 0 min 0 min 0,0 UV-I 0 W/m 18,0 km/h (3 Bft)
27.12.2013 18:06 9,2 C 7,2 C 87 % 995,5 hPa 0,0 l/m 0 min 0 min 0,0 UV-I 0 W/m 20,6 km/h (4 Bft)
27.12.2013 18:08 9,2 C 7,2 C 87 % 995,5 hPa 0,0 l/m 0 min 0 min 0,0 UV-I 0 W/m 20,6 km/h (4 Bft)
27.12.2013 18:10 9,2 C 7,2 C 87 % 995,5 hPa 0,0 l/m 0 min 0 min 0,0 UV-I 0 W/m 25,7 km/h (4 Bft)
27.12.2013 18:12 9,2 C 7,2 C 87 % 995,5 hPa 0,0 l/m 0 min 0 min 0,0 UV-I 0 W/m 20,6 km/h (4 Bft)
27.12.2013 18:14 9,2 C 7,2 C 87 % 995,5 hPa 0,0 l/m 0 min 0 min 0,0 UV-I 0 W/m 20,6 km/h (4 Bft)
27.12.2013 18:16 9,2 C 7,2 C 87 % 995,6 hPa 0,0 l/m 0 min 0 min 0,0 UV-I 0 W/m 28,3 km/h (4 Bft)
27.12.2013 18:18 9,2 C 7,2 C 87 % 995,6 hPa 0,0 l/m 0 min 0 min 0,0 UV-I 0 W/m 20,6 km/h (4 Bft)
27.12.2013 18:20 9,2 C 7,2 C 87 % 995,6 hPa 0,0 l/m 0 min 0 min 0,0 UV-I 0 W/m 15,4 km/h (3 Bft)
27.12.2013 18:22 9,2 C 7,2 C 87 % 995,5 hPa 0,0 l/m 0 min 0 min 0,0 UV-I 0 W/m 12,9 km/h (3 Bft)
27.12.2013 18:24 9,2 C 7,2 C 87 % 995,5 hPa 0,0 l/m 0 min 0 min 0,0 UV-I 0 W/m 20,6 km/h (4 Bft)
27.12.2013 18:26 9,2 C 7,2 C 87 % 995,6 hPa 0,0 l/m 0 min 0 min 0,0 UV-I 0 W/m 25,7 km/h (4 Bft)
27.12.2013 18:28 9,2 C 7,2 C 87 % 995,5 hPa 0,0 l/m 0 min 0 min 0,0 UV-I 0 W/m 30,9 km/h (5 Bft)
27.12.2013 18:30 9,2 C 7,2 C 87 % 995,5 hPa 0,0 l/m 0 min 0 min 0,0 UV-I 0 W/m 20,6 km/h (4 Bft)
27.12.2013 18:32 9,2 C 7,8 C 87 % 995,5 hPa 0,0 l/m 0 min 0 min 0,0 UV-I 0 W/m 20,6 km/h (4 Bft)
27.12.2013 18:34 9,2 C 7,8 C 87 % 995,5 hPa 0,0 l/m 0 min 0 min 0,0 UV-I 0 W/m 12,9 km/h (3 Bft)
27.12.2013 18:36 9,2 C 7,8 C 87 % 995,5 hPa 0,0 l/m 0 min 0 min 0,0 UV-I 0 W/m 20,6 km/h (4 Bft)
27.12.2013 18:38 9,2 C 7,8 C 87 % 995,4 hPa 0,0 l/m 0 min 0 min 0,0 UV-I 0 W/m 30,9 km/h (5 Bft)
27.12.2013 18:40 9,3 C 7,8 C 87 % 995,3 hPa 0,0 l/m 0 min 0 min 0,0 UV-I 0 W/m 18,0 km/h (3 Bft)
27.12.2013 18:42 9,3 C 7,8 C 87 % 995,4 hPa 0,0 l/m 0 min 0 min 0,0 UV-I 0 W/m 12,9 km/h (3 Bft)
27.12.2013 18:44 9,3 C 7,8 C 87 % 995,4 hPa 0,0 l/m 0 min 0 min 0,0 UV-I 0 W/m 12,9 km/h (3 Bft)
27.12.2013 18:46 9,3 C 7,8 C 87 % 995,4 hPa 0,0 l/m 0 min 0 min 0,0 UV-I 0 W/m 18,0 km/h (3 Bft)
27.12.2013 18:48 9,3 C 7,8 C 87 % 995,4 hPa 0,0 l/m 0 min 0 min 0,0 UV-I 0 W/m 12,9 km/h (3 Bft)
27.12.2013 18:50 9,3 C 7,8 C 87 % 995,4 hPa 0,0 l/m 0 min 2 min 0,0 UV-I 0 W/m 15,4 km/h (3 Bft)
27.12.2013 18:52 9,3 C 7,8 C 87 % 995,4 hPa 0,0 l/m 0 min 0 min 0,0 UV-I 0 W/m 20,6 km/h (4 Bft)
27.12.2013 18:54 9,3 C 7,8 C 88 % 995,3 hPa 0,0 l/m 0 min 0 min 0,0 UV-I 0 W/m 12,9 km/h (3 Bft)
27.12.2013 18:56 9,3 C 7,8 C 87 % 995,4 hPa 0,0 l/m 0 min 0 min 0,0 UV-I 0 W/m 20,6 km/h (4 Bft)
27.12.2013 18:58 9,3 C 7,8 C 87 % 995,4 hPa 0,0 l/m 0 min 0 min 0,0 UV-I 0 W/m 18,0 km/h (3 Bft)
27.12.2013 19:00 9,3 C 7,8 C 88 % 995,4 hPa 0,0 l/m 0 min 0 min 0,0 UV-I 0 W/m 23,2 km/h (4 Bft)
27.12.2013 19:02 9,4 C 7,8 C 88 % 995,5 hPa 0,0 l/m 0 min 2 min 0,0 UV-I 0 W/m 18,0 km/h (3 Bft)
27.12.2013 19:04 9,4 C 7,8 C 88 % 995,4 hPa 0,0 l/m 0 min 0 min 0,0 UV-I 0 W/m 12,9 km/h (3 Bft)
27.12.2013 19:06 9,4 C 7,8 C 88 % 995,4 hPa 0,0 l/m 0 min 0 min 0,0 UV-I 0 W/m 20,6 km/h (4 Bft)
27.12.2013 19:08 9,4 C 7,8 C 88 % 995,3 hPa 0,0 l/m 0 min 0 min 0,0 UV-I 0 W/m 18,0 km/h (3 Bft)
27.12.2013 19:10 9,4 C 7,8 C 88 % 995,3 hPa 0,0 l/m 0 min 0 min 0,0 UV-I 0 W/m 15,4 km/h (3 Bft)
27.12.2013 19:12 9,4 C 7,8 C 88 % 995,3 hPa 0,0 l/m 0 min 0 min 0,0 UV-I 0 W/m 15,4 km/h (3 Bft)
27.12.2013 19:14 9,4 C 7,8 C 88 % 995,3 hPa 0,0 l/m 0 min 0 min 0,0 UV-I 0 W/m 18,0 km/h (3 Bft)
27.12.2013 19:16 9,4 C 7,8 C 88 % 995,3 hPa 0,0 l/m 0 min 0 min 0,0 UV-I 0 W/m 20,6 km/h (4 Bft)
27.12.2013 19:18 9,4 C 7,8 C 88 % 995,4 hPa 0,0 l/m 0 min 2 min 0,0 UV-I 0 W/m 12,9 km/h (3 Bft)
27.12.2013 19:20 9,4 C 7,8 C 88 % 995,2 hPa 0,0 l/m 0 min 2 min 0,0 UV-I 0 W/m 20,6 km/h (4 Bft)
27.12.2013 19:22 9,4 C 7,8 C 88 % 995,2 hPa 0,0 l/m 0 min 0 min 0,0 UV-I 0 W/m 15,4 km/h (3 Bft)
27.12.2013 19:24 9,4 C 7,2 C 88 % 995,3 hPa 0,0 l/m 0 min 0 min 0,0 UV-I 0 W/m 12,9 km/h (3 Bft)
27.12.2013 19:26 9,4 C 7,2 C 88 % 995,4 hPa 0,0 l/m 0 min 0 min 0,0 UV-I 0 W/m 15,4 km/h (3 Bft)
27.12.2013 19:28 9,4 C 7,2 C 88 % 995,4 hPa 0,0 l/m 0 min 0 min 0,0 UV-I 0 W/m 12,9 km/h (3 Bft)
27.12.2013 19:30 9,4 C 7,2 C 88 % 995,4 hPa 0,0 l/m 0 min 0 min 0,0 UV-I 0 W/m 10,3 km/h (2 Bft)
27.12.2013 19:32 9,4 C 7,8 C 88 % 995,4 hPa 0,0 l/m 0 min 0 min 0,0 UV-I 0 W/m 23,2 km/h (4 Bft)
27.12.2013 19:34 9,4 C 7,8 C 88 % 995,4 hPa 0,0 l/m 0 min 0 min 0,0 UV-I 0 W/m 18,0 km/h (3 Bft)
27.12.2013 19:36 9,4 C 7,8 C 88 % 995,3 hPa 0,0 l/m 0 min 0 min 0,0 UV-I 0 W/m 18,0 km/h (3 Bft)
27.12.2013 19:38 9,4 C 7,8 C 88 % 995,4 hPa 0,0 l/m 0 min 0 min 0,0 UV-I 0 W/m 18,0 km/h (3 Bft)
27.12.2013 19:40 9,4 C 7,8 C 88 % 995,5 hPa 0,0 l/m 0 min 0 min 0,0 UV-I 0 W/m 7,7 km/h (2 Bft)
27.12.2013 19:42 9,4 C 7,8 C 88 % 995,5 hPa 0,0 l/m 0 min 0 min 0,0 UV-I 0 W/m 15,4 km/h (3 Bft)
27.12.2013 19:44 9,5 C 7,8 C 88 % 995,6 hPa 0,0 l/m 0 min 2 min 0,0 UV-I 0 W/m 20,6 km/h (4 Bft)
27.12.2013 19:46 9,6 C 7,8 C 89 % 995,7 hPa 0,0 l/m 0 min 2 min 0,0 UV-I 0 W/m 25,7 km/h (4 Bft)
27.12.2013 19:48 9,7 C 7,8 C 89 % 995,7 hPa 0,0 l/m 0 min 2 min 0,0 UV-I 0 W/m 28,3 km/h (4 Bft)
27.12.2013 19:50 9,8 C 8,3 C 90 % 995,6 hPa 0,0 l/m 0 min 2 min 0,0 UV-I 0 W/m 28,3 km/h (4 Bft)
27.12.2013 19:52 9,9 C 8,3 C 90 % 995,7 hPa 0,0 l/m 0 min 2 min 0,0 UV-I 0 W/m 25,7 km/h (4 Bft)
27.12.2013 19:54 10,1 C 8,3 C 90 % 995,7 hPa 0,0 l/m 0 min 2 min 0,0 UV-I 0 W/m 23,2 km/h (4 Bft)
27.12.2013 19:56 10,2 C 8,3 C 91 % 995,6 hPa 0,0 l/m 0 min 2 min 0,0 UV-I 0 W/m 33,5 km/h (5 Bft)
27.12.2013 19:58 10,2 C 8,3 C 91 % 995,6 hPa 0,0 l/m 0 min 2 min 0,0 UV-I 0 W/m 20,6 km/h (4 Bft)
27.12.2013 20:00 10,2 C 8,3 C 91 % 995,6 hPa 0,0 l/m 0 min 2 min 0,0 UV-I 0 W/m 20,6 km/h (4 Bft)
27.12.2013 20:02 10,3 C 8,3 C 91 % 995,6 hPa 0,0 l/m 0 min 2 min 0,0 UV-I 0 W/m 25,7 km/h (4 Bft)
27.12.2013 20:04 10,3 C 8,3 C 91 % 995,7 hPa 0,0 l/m 0 min 2 min 0,0 UV-I 0 W/m 30,9 km/h (5 Bft)
27.12.2013 20:06 10,3 C 8,3 C 91 % 995,6 hPa 0,0 l/m 0 min 2 min 0,0 UV-I 0 W/m 20,6 km/h (4 Bft)
27.12.2013 20:08 10,3 C 8,3 C 91 % 995,8 hPa 0,2 l/m 0 min 2 min 0,0 UV-I 0 W/m 25,7 km/h (4 Bft)
27.12.2013 20:10 10,3 C 8,3 C 92 % 995,8 hPa 0,0 l/m 0 min 2 min 0,0 UV-I 0 W/m 12,9 km/h (3 Bft)
27.12.2013 20:12 10,3 C 8,3 C 92 % 995,9 hPa 0,0 l/m 0 min 2 min 0,0 UV-I 0 W/m 30,9 km/h (5 Bft)
27.12.2013 20:14 10,3 C 8,3 C 92 % 995,7 hPa 0,0 l/m 0 min 2 min 0,0 UV-I 0 W/m 23,2 km/h (4 Bft)
27.12.2013 20:16 10,3 C 8,3 C 92 % 995,6 hPa 0,0 l/m 0 min 2 min 0,0 UV-I 0 W/m 28,3 km/h (4 Bft)
27.12.2013 20:18 10,3 C 7,8 C 92 % 995,7 hPa 0,0 l/m 0 min 2 min 0,0 UV-I 0 W/m 23,2 km/h (4 Bft)
27.12.2013 20:20 10,2 C 7,8 C 92 % 995,7 hPa 0,0 l/m 0 min 2 min 0,0 UV-I 0 W/m 15,4 km/h (3 Bft)
27.12.2013 20:22 10,2 C 7,8 C 92 % 995,7 hPa 0,0 l/m 0 min 0 min 0,0 UV-I 0 W/m 20,6 km/h (4 Bft)
27.12.2013 20:24 10,2 C 8,3 C 92 % 995,7 hPa 0,0 l/m 0 min 2 min 0,0 UV-I 0 W/m 25,7 km/h (4 Bft)
27.12.2013 20:26 10,2 C 8,3 C 92 % 995,7 hPa 0,0 l/m 0 min 2 min 0,0 UV-I 0 W/m 25,7 km/h (4 Bft)
27.12.2013 20:28 10,2 C 8,3 C 92 % 995,7 hPa 0,0 l/m 0 min 2 min 0,0 UV-I 0 W/m 28,3 km/h (4 Bft)
27.12.2013 20:30 10,2 C 8,3 C 92 % 995,7 hPa 0,0 l/m 0 min 2 min 0,0 UV-I 0 W/m 30,9 km/h (5 Bft)
27.12.2013 20:32 10,2 C 8,3 C 93 % 995,8 hPa 0,2 l/m 0 min 2 min 0,0 UV-I 0 W/m 15,4 km/h (3 Bft)
27.12.2013 20:34 10,1 C 8,3 C 93 % 995,8 hPa 0,0 l/m 0 min 2 min 0,0 UV-I 0 W/m 20,6 km/h (4 Bft)
27.12.2013 20:36 10,2 C 8,3 C 93 % 995,7 hPa 0,0 l/m 0 min 2 min 0,0 UV-I 0 W/m 23,2 km/h (4 Bft)
27.12.2013 20:38 10,1 C 8,3 C 93 % 995,6 hPa 0,0 l/m 0 min 2 min 0,0 UV-I 0 W/m 18,0 km/h (3 Bft)
27.12.2013 20:40 10,1 C 7,8 C 93 % 995,6 hPa 0,0 l/m 0 min 2 min 0,0 UV-I 0 W/m 15,4 km/h (3 Bft)
27.12.2013 20:42 10,1 C 7,8 C 93 % 995,6 hPa 0,0 l/m 0 min 2 min 0,0 UV-I 0 W/m 20,6 km/h (4 Bft)
27.12.2013 20:44 10,0 C 7,8 C 94 % 995,7 hPa 0,0 l/m 0 min 2 min 0,0 UV-I 0 W/m 30,9 km/h (5 Bft)
27.12.2013 20:46 10,0 C 7,8 C 94 % 995,6 hPa 0,0 l/m 0 min 0 min 0,0 UV-I 0 W/m 12,9 km/h (3 Bft)
27.12.2013 20:48 10,0 C 7,8 C 94 % 995,7 hPa 0,0 l/m 0 min 0 min 0,0 UV-I 0 W/m 12,9 km/h (3 Bft)
27.12.2013 20:50 9,9 C 7,8 C 94 % 995,8 hPa 0,0 l/m 0 min 0 min 0,0 UV-I 0 W/m 23,2 km/h (4 Bft)
27.12.2013 20:52 9,9 C 7,8 C 94 % 995,7 hPa 0,0 l/m 0 min 0 min 0,0 UV-I 0 W/m 23,2 km/h (4 Bft)
27.12.2013 20:54 9,9 C 7,8 C 94 % 995,8 hPa 0,0 l/m 0 min 0 min 0,0 UV-I 0 W/m 18,0 km/h (3 Bft)
27.12.2013 20:56 9,9 C 7,8 C 94 % 995,7 hPa 0,0 l/m 0 min 0 min 0,0 UV-I 0 W/m 18,0 km/h (3 Bft)
27.12.2013 20:58 9,9 C 7,8 C 94 % 995,7 hPa 0,0 l/m 0 min 0 min 0,0 UV-I 0 W/m 18,0 km/h (3 Bft)
27.12.2013 21:00 9,8 C 7,8 C 94 % 995,8 hPa 0,0 l/m 0 min 0 min 0,0 UV-I 0 W/m 18,0 km/h (3 Bft)
27.12.2013 21:02 9,8 C 7,8 C 94 % 995,7 hPa 0,0 l/m 0 min 0 min 0,0 UV-I 0 W/m 18,0 km/h (3 Bft)
27.12.2013 21:04 9,8 C 7,8 C 95 % 995,7 hPa 0,0 l/m 0 min 0 min 0,0 UV-I 0 W/m 25,7 km/h (4 Bft)
27.12.2013 21:06 9,8 C 7,8 C 95 % 995,9 hPa 0,0 l/m 0 min 0 min 0,0 UV-I 0 W/m 23,2 km/h (4 Bft)
27.12.2013 21:08 9,8 C 7,8 C 95 % 995,8 hPa 0,0 l/m 0 min 0 min 0,0 UV-I 0 W/m 23,2 km/h (4 Bft)
27.12.2013 21:10 9,8 C 7,8 C 95 % 995,8 hPa 0,0 l/m 0 min 0 min 0,0 UV-I 0 W/m 12,9 km/h (3 Bft)
27.12.2013 21:12 9,8 C 7,8 C 95 % 995,9 hPa 0,0 l/m 0 min 0 min 0,0 UV-I 0 W/m 28,3 km/h (4 Bft)
27.12.2013 21:14 9,8 C 7,8 C 95 % 995,8 hPa 0,0 l/m 0 min 0 min 0,0 UV-I 0 W/m 20,6 km/h (4 Bft)
27.12.2013 21:16 9,8 C 7,8 C 95 % 995,9 hPa 0,0 l/m 0 min 0 min 0,0 UV-I 0 W/m 10,3 km/h (2 Bft)
27.12.2013 21:18 9,8 C 7,8 C 95 % 995,8 hPa 0,0 l/m 0 min 0 min 0,0 UV-I 0 W/m 36,0 km/h (5 Bft)
27.12.2013 21:20 9,8 C 7,8 C 95 % 995,8 hPa 0,0 l/m 0 min 0 min 0,0 UV-I 0 W/m 23,2 km/h (4 Bft)
27.12.2013 21:22 9,8 C 7,8 C 95 % 995,8 hPa 0,0 l/m 0 min 0 min 0,0 UV-I 0 W/m 23,2 km/h (4 Bft)
27.12.2013 21:24 9,8 C 7,8 C 95 % 995,9 hPa 0,0 l/m 0 min 0 min 0,0 UV-I 0 W/m 12,9 km/h (3 Bft)
27.12.2013 21:26 9,8 C 7,8 C 95 % 995,9 hPa 0,0 l/m 0 min 0 min 0,0 UV-I 0 W/m 15,4 km/h (3 Bft)
27.12.2013 21:28 9,8 C 7,8 C 95 % 995,9 hPa 0,0 l/m 0 min 0 min 0,0 UV-I 0 W/m 12,9 km/h (3 Bft)
27.12.2013 21:30 9,8 C 7,8 C 95 % 995,9 hPa 0,0 l/m 0 min 2 min 0,0 UV-I 0 W/m 18,0 km/h (3 Bft)
27.12.2013 21:32 9,8 C 7,8 C 96 % 995,9 hPa 0,0 l/m 0 min 2 min 0,0 UV-I 0 W/m 10,3 km/h (2 Bft)
27.12.2013 21:34 9,8 C 7,8 C 96 % 995,9 hPa 0,0 l/m 0 min 2 min 0,0 UV-I 0 W/m 18,0 km/h (3 Bft)
27.12.2013 21:36 9,8 C 7,8 C 96 % 995,9 hPa 0,0 l/m 0 min 2 min 0,0 UV-I 0 W/m 18,0 km/h (3 Bft)
27.12.2013 21:38 9,8 C 7,8 C 96 % 995,8 hPa 0,2 l/m 0 min 2 min 0,0 UV-I 0 W/m 23,2 km/h (4 Bft)
27.12.2013 21:40 9,8 C 7,8 C 96 % 995,8 hPa 0,0 l/m 0 min 2 min 0,0 UV-I 0 W/m 20,6 km/h (4 Bft)
27.12.2013 21:42 9,8 C 7,8 C 95 % 995,7 hPa 0,0 l/m 0 min 2 min 0,0 UV-I 0 W/m 18,0 km/h (3 Bft)
27.12.2013 21:44 9,7 C 7,8 C 95 % 995,8 hPa 0,0 l/m 0 min 2 min 0,0 UV-I 0 W/m 20,6 km/h (4 Bft)
27.12.2013 21:46 9,7 C 7,8 C 96 % 995,8 hPa 0,0 l/m 0 min 2 min 0,0 UV-I 0 W/m 20,6 km/h (4 Bft)
27.12.2013 21:48 9,8 C 7,8 C 95 % 995,7 hPa 0,2 l/m 0 min 2 min 0,0 UV-I 0 W/m 23,2 km/h (4 Bft)
27.12.2013 21:50 9,8 C 7,8 C 96 % 995,8 hPa 0,0 l/m 0 min 2 min 0,0 UV-I 0 W/m 20,6 km/h (4 Bft)
27.12.2013 21:52 9,8 C 7,8 C 95 % 995,8 hPa 0,0 l/m 0 min 0 min 0,0 UV-I 0 W/m 25,7 km/h (4 Bft)
27.12.2013 21:54 9,8 C 7,8 C 96 % 995,8 hPa 0,0 l/m 0 min 0 min 0,0 UV-I 0 W/m 25,7 km/h (4 Bft)
27.12.2013 21:56 9,8 C 7,8 C 96 % 995,8 hPa 0,0 l/m 0 min 0 min 0,0 UV-I 0 W/m 20,6 km/h (4 Bft)
27.12.2013 21:58 9,8 C 7,8 C 96 % 995,8 hPa 0,0 l/m 0 min 0 min 0,0 UV-I 0 W/m 18,0 km/h (3 Bft)
27.12.2013 22:00 9,8 C 7,8 C 96 % 995,8 hPa 0,0 l/m 0 min 0 min 0,0 UV-I 0 W/m 28,3 km/h (4 Bft)
27.12.2013 22:02 9,8 C 7,8 C 96 % 995,8 hPa 0,0 l/m 0 min 0 min 0,0 UV-I 0 W/m 18,0 km/h (3 Bft)
27.12.2013 22:04 9,8 C 7,8 C 96 % 995,8 hPa 0,0 l/m 0 min 0 min 0,0 UV-I 0 W/m 20,6 km/h (4 Bft)
27.12.2013 22:06 9,8 C 7,8 C 96 % 995,8 hPa 0,0 l/m 0 min 0 min 0,0 UV-I 0 W/m 18,0 km/h (3 Bft)
27.12.2013 22:08 9,8 C 7,8 C 96 % 995,8 hPa 0,0 l/m 0 min 0 min 0,0 UV-I 0 W/m 20,6 km/h (4 Bft)
27.12.2013 22:10 9,8 C 7,8 C 95 % 995,8 hPa 0,0 l/m 0 min 0 min 0,0 UV-I 0 W/m 15,4 km/h (3 Bft)
27.12.2013 22:12 9,8 C 7,8 C 95 % 995,7 hPa 0,0 l/m 0 min 2 min 0,0 UV-I 0 W/m 15,4 km/h (3 Bft)
27.12.2013 22:14 9,8 C 7,8 C 95 % 995,7 hPa 0,0 l/m 0 min 2 min 0,0 UV-I 0 W/m 12,9 km/h (3 Bft)
27.12.2013 22:16 9,9 C 7,8 C 95 % 995,6 hPa 0,0 l/m 0 min 2 min 0,0 UV-I 0 W/m 15,4 km/h (3 Bft)
27.12.2013 22:18 9,9 C 7,8 C 95 % 995,7 hPa 0,0 l/m 0 min 2 min 0,0 UV-I 0 W/m 12,9 km/h (3 Bft)
27.12.2013 22:20 9,9 C 7,8 C 95 % 995,7 hPa 0,0 l/m 0 min 2 min 0,0 UV-I 0 W/m 12,9 km/h (3 Bft)
27.12.2013 22:22 9,9 C 7,8 C 95 % 995,6 hPa 0,0 l/m 0 min 2 min 0,0 UV-I 0 W/m 18,0 km/h (3 Bft)
27.12.2013 22:24 9,9 C 7,8 C 95 % 995,6 hPa 0,0 l/m 0 min 2 min 0,0 UV-I 0 W/m 10,3 km/h (2 Bft)
27.12.2013 22:26 9,8 C 7,8 C 95 % 995,6 hPa 0,0 l/m 0 min 2 min 0,0 UV-I 0 W/m 12,9 km/h (3 Bft)
27.12.2013 22:28 9,8 C 7,8 C 95 % 995,6 hPa 0,0 l/m 0 min 2 min 0,0 UV-I 0 W/m 18,0 km/h (3 Bft)
27.12.2013 22:30 9,8 C 7,8 C 95 % 995,5 hPa 0,2 l/m 0 min 2 min 0,0 UV-I 0 W/m 18,0 km/h (3 Bft)
27.12.2013 22:32 9,8 C 7,8 C 95 % 995,4 hPa 0,0 l/m 0 min 2 min 0,0 UV-I 0 W/m 7,7 km/h (2 Bft)
27.12.2013 22:34 9,8 C 7,8 C 95 % 995,5 hPa 0,0 l/m 0 min 0 min 0,0 UV-I 0 W/m 7,7 km/h (2 Bft)
27.12.2013 22:36 9,7 C 7,8 C 95 % 995,5 hPa 0,0 l/m 0 min 0 min 0,0 UV-I 0 W/m 12,9 km/h (3 Bft)
27.12.2013 22:38 9,7 C 7,8 C 95 % 995,4 hPa 0,0 l/m 0 min 0 min 0,0 UV-I 0 W/m 15,4 km/h (3 Bft)
27.12.2013 22:40 9,7 C 7,8 C 95 % 995,4 hPa 0,0 l/m 0 min 0 min 0,0 UV-I 0 W/m 20,6 km/h (4 Bft)
27.12.2013 22:42 9,7 C 7,8 C 95 % 995,4 hPa 0,0 l/m 0 min 0 min 0,0 UV-I 0 W/m 23,2 km/h (4 Bft)
27.12.2013 22:44 9,7 C 7,8 C 95 % 995,4 hPa 0,0 l/m 0 min 0 min 0,0 UV-I 0 W/m 18,0 km/h (3 Bft)
27.12.2013 22:46 9,7 C 7,8 C 95 % 995,4 hPa 0,0 l/m 0 min 2 min 0,0 UV-I 0 W/m 15,4 km/h (3 Bft)
27.12.2013 22:48 9,6 C 7,8 C 95 % 995,4 hPa 0,0 l/m 0 min 0 min 0,0 UV-I 0 W/m 12,9 km/h (3 Bft)
27.12.2013 22:50 9,6 C 7,8 C 95 % 995,4 hPa 0,0 l/m 0 min 0 min 0,0 UV-I 0 W/m 12,9 km/h (3 Bft)
27.12.2013 22:52 9,6 C 7,8 C 95 % 995,3 hPa 0,0 l/m 0 min 0 min 0,0 UV-I 0 W/m 5,1 km/h (1 Bft)
27.12.2013 22:54 9,6 C 7,8 C 95 % 995,3 hPa 0,0 l/m 0 min 0 min 0,0 UV-I 0 W/m 18,0 km/h (3 Bft)
27.12.2013 22:56 9,6 C 7,8 C 95 % 995,3 hPa 0,0 l/m 0 min 0 min 0,0 UV-I 0 W/m 10,3 km/h (2 Bft)
27.12.2013 22:58 9,6 C 7,8 C 95 % 995,3 hPa 0,0 l/m 0 min 0 min 0,0 UV-I 0 W/m 18,0 km/h (3 Bft)
27.12.2013 23:00 9,6 C 7,8 C 95 % 995,3 hPa 0,0 l/m 0 min 0 min 0,0 UV-I 0 W/m 18,0 km/h (3 Bft)
27.12.2013 23:02 9,6 C 7,8 C 95 % 995,3 hPa 0,0 l/m 0 min 0 min 0,0 UV-I 0 W/m 18,0 km/h (3 Bft)
27.12.2013 23:04 9,6 C 7,8 C 95 % 995,2 hPa 0,0 l/m 0 min 0 min 0,0 UV-I 0 W/m 20,6 km/h (4 Bft)
27.12.2013 23:06 9,6 C 7,8 C 95 % 995,1 hPa 0,0 l/m 0 min 0 min 0,0 UV-I 0 W/m 23,2 km/h (4 Bft)
27.12.2013 23:08 9,6 C 7,8 C 95 % 995,1 hPa 0,0 l/m 0 min 2 min 0,0 UV-I 0 W/m 25,7 km/h (4 Bft)
27.12.2013 23:10 9,6 C 7,8 C 95 % 995,0 hPa 0,0 l/m 0 min 2 min 0,0 UV-I 0 W/m 18,0 km/h (3 Bft)
27.12.2013 23:12 9,6 C 7,8 C 95 % 995,1 hPa 0,0 l/m 0 min 0 min 0,0 UV-I 0 W/m 20,6 km/h (4 Bft)
27.12.2013 23:14 9,6 C 7,8 C 95 % 995,2 hPa 0,0 l/m 0 min 0 min 0,0 UV-I 0 W/m 15,4 km/h (3 Bft)
27.12.2013 23:16 9,6 C 7,8 C 95 % 995,1 hPa 0,0 l/m 0 min 0 min 0,0 UV-I 0 W/m 23,2 km/h (4 Bft)
27.12.2013 23:18 9,6 C 7,8 C 95 % 995,1 hPa 0,0 l/m 0 min 0 min 0,0 UV-I 0 W/m 12,9 km/h (3 Bft)
27.12.2013 23:20 9,6 C 7,8 C 95 % 995,1 hPa 0,0 l/m 0 min 0 min 0,0 UV-I 0 W/m 20,6 km/h (4 Bft)
27.12.2013 23:22 9,6 C 7,8 C 95 % 995,1 hPa 0,0 l/m 0 min 0 min 0,0 UV-I 0 W/m 15,4 km/h (3 Bft)
27.12.2013 23:24 9,6 C 7,8 C 95 % 995,0 hPa 0,0 l/m 0 min 0 min 0,0 UV-I 0 W/m 23,2 km/h (4 Bft)
27.12.2013 23:26 9,6 C 7,8 C 95 % 995,0 hPa 0,0 l/m 0 min 0 min 0,0 UV-I 0 W/m 25,7 km/h (4 Bft)
27.12.2013 23:28 9,6 C 7,8 C 95 % 995,0 hPa 0,0 l/m 0 min 0 min 0,0 UV-I 0 W/m 15,4 km/h (3 Bft)
27.12.2013 23:30 9,6 C 7,8 C 95 % 995,1 hPa 0,0 l/m 0 min 0 min 0,0 UV-I 0 W/m 20,6 km/h (4 Bft)
27.12.2013 23:32 9,6 C 7,8 C 95 % 995,0 hPa 0,0 l/m 0 min 0 min 0,0 UV-I 0 W/m 23,2 km/h (4 Bft)
27.12.2013 23:34 9,6 C 7,8 C 95 % 995,1 hPa 0,0 l/m 0 min 0 min 0,0 UV-I 0 W/m 15,4 km/h (3 Bft)
27.12.2013 23:36 9,7 C 7,8 C 95 % 995,1 hPa 0,0 l/m 0 min 0 min 0,0 UV-I 0 W/m 20,6 km/h (4 Bft)
27.12.2013 23:38 9,7 C 7,8 C 95 % 995,0 hPa 0,0 l/m 0 min 0 min 0,0 UV-I 0 W/m 18,0 km/h (3 Bft)
27.12.2013 23:40 9,7 C 7,8 C 95 % 995,1 hPa 0,0 l/m 0 min 0 min 0,0 UV-I 0 W/m 23,2 km/h (4 Bft)
27.12.2013 23:42 9,7 C 7,8 C 95 % 995,1 hPa 0,0 l/m 0 min 0 min 0,0 UV-I 0 W/m 15,4 km/h (3 Bft)
27.12.2013 23:44 9,7 C 7,8 C 95 % 995,2 hPa 0,0 l/m 0 min 2 min 0,0 UV-I 0 W/m 30,9 km/h (5 Bft)
27.12.2013 23:46 9,8 C 7,8 C 95 % 995,1 hPa 0,0 l/m 0 min 2 min 0,0 UV-I 0 W/m 30,9 km/h (5 Bft)
27.12.2013 23:48 9,8 C 7,8 C 95 % 995,1 hPa 0,0 l/m 0 min 2 min 0,0 UV-I 0 W/m 23,2 km/h (4 Bft)
27.12.2013 23:50 9,9 C 8,3 C 95 % 995,1 hPa 0,0 l/m 0 min 2 min 0,0 UV-I 0 W/m 23,2 km/h (4 Bft)
27.12.2013 23:52 9,9 C 8,3 C 95 % 995,1 hPa 0,0 l/m 0 min 2 min 0,0 UV-I 0 W/m 15,4 km/h (3 Bft)
27.12.2013 23:54 9,9 C 8,3 C 95 % 995,1 hPa 0,0 l/m 0 min 2 min 0,0 UV-I 0 W/m 18,0 km/h (3 Bft)
27.12.2013 23:56 9,9 C 8,3 C 95 % 995,1 hPa 0,0 l/m 0 min 2 min 0,0 UV-I 0 W/m 20,6 km/h (4 Bft)
27.12.2013 23:58 9,9 C 8,3 C 95 % 995,0 hPa 0,0 l/m 0 min 0 min 0,0 UV-I 0 W/m 23,2 km/h (4 Bft)
_ Min-Zeit 03:48 00:18 10:08 23:10 - - - - - 00:00
Minimum _ 2,9 C 1,7 C 77 % 995,0 hPa - - - - - 0,0 km/h (0 Bft)
_ Max-Zeit 20:02 19:50 21:32 00:54 12:40 00:00 11:00 00:00 10:48 09:34
Maximum _ 10,3 C 8,3 C 96 % 1003,5 hPa 0,2 l/m 0 min 2 min 0,0 UV-I 88 W/m 61,8 km/h
SO (7 Bft)
Durchschnitt _ 7,1 C 5,4 C 89 % 997,8 hPa #1,4 l/m #0 min. #4:06 h 0,0 UV-I 28 W/m 18,6 km/h (3 Bft)
© 2013 W. Hausmann